GFSMW_700_spd_000.txt.gz
Wind_Speed
13 14 11 17 16 18 22 22 25 25 24 23 26 28 28 27 27 27 28 29 26 24 26 29 29 30 31 32 30 29 28 30 32 32 31 31 32 32 34 38 41 43 44
4 8 11 13 15 15 15 26 24 20 22 32 29 32 33 30 29 27 29 31 32 31 31 31 30 32 35 36 34 33 36 36 37 35 35 37 34 30 27 34 37 40 41
13 14 15 19 17 17 24 32 36 27 28 38 37 43 40 35 31 29 31 33 36 36 36 35 31 33 35 37 38 42 41 39 41 41 41 44 40 37 31 28 30 33 37
14 20 26 31 27 28 30 39 41 34 34 40 40 43 46 44 37 34 35 37 39 40 39 39 39 38 40 42 45 46 44 42 43 46 47 46 42 40 44 35 34 34 34
17 23 26 26 26 29 33 37 39 36 35 33 38 46 50 44 42 38 37 41 45 45 41 39 41 44 45 47 45 42 45 46 42 53 53 45 41 36 39 45 41 37 37
21 22 24 25 27 30 34 38 38 39 36 34 37 48 42 41 40 37 38 42 49 48 46 43 44 46 45 50 51 51 49 47 53 59 52 42 37 39 40 42 43 45 40
18 23 26 32 33 33 39 33 33 32 37 37 46 41 37 38 37 38 41 42 45 53 50 46 49 49 52 51 53 52 59 54 57 56 52 41 40 39 40 42 44 48 45
26 30 31 32 34 34 31 30 37 34 36 48 51 42 40 41 40 41 44 45 39 48 51 49 52 53 52 55 59 61 58 52 49 53 47 45 41 39 39 41 43 48 49
32 39 40 40 37 30 29 31 38 44 52 59 50 47 46 41 41 45 45 44 41 40 49 57 52 55 57 48 38 42 42 44 45 46 44 42 40 39 39 40 42 44 49
32 39 41 39 38 40 41 43 48 52 52 48 49 49 48 50 48 47 41 37 35 36 45 49 49 43 40 47 42 40 40 41 41 41 40 40 40 40 40 41 43 44 45
32 28 28 28 33 39 45 54 50 48 49 50 50 52 53 52 49 43 33 33 33 37 40 43 41 38 40 41 38 37 38 39 40 40 40 41 39 39 40 40 42 45 45
32 38 38 39 42 50 56 46 48 48 48 49 53 54 53 51 42 36 33 36 31 34 35 33 34 35 35 37 38 39 39 39 40 40 39 39 37 38 38 39 41 43 43
34 38 43 48 51 47 47 49 46 49 53 54 53 53 53 48 42 37 33 31 29 26 32 35 34 35 36 37 38 39 39 39 39 39 38 38 40 41 41 42 43 43 45
38 39 49 46 43 46 44 45 49 52 54 52 50 49 45 42 38 36 34 32 32 33 33 33 34 35 36 37 37 38 37 37 38 39 41 42 42 41 41 42 44 46 48
46 44 49 42 47 46 44 50 51 51 53 52 49 44 35 39 37 37 37 37 29 27 31 32 36 38 38 38 38 38 40 42 42 40 39 40 41 42 43 44 44 46 47
49 47 43 48 40 45 48 48 51 51 51 49 42 30 29 36 37 34 34 34 34 32 34 36 39 39 37 38 39 41 42 41 42 43 43 43 43 45 46 48 48 50 51
41 40 40 42 45 47 50 52 51 51 49 39 27 22 23 27 31 36 35 34 34 36 39 40 39 38 37 38 40 40 42 43 45 45 46 46 41 38 37 38 40 43 45
32 35 40 43 46 49 51 53 51 47 37 28 25 22 22 24 28 28 31 32 37 40 42 40 38 37 37 38 38 40 43 45 44 43 37 35 33 31 33 35 37 38 39
33 34 38 44 49 51 52 51 47 34 29 29 28 26 26 27 24 24 36 39 40 40 38 37 36 37 37 38 39 41 43 42 35 32 31 34 35 33 34 38 40 39 38
35 38 43 50 52 51 48 44 35 29 29 30 28 27 26 29 33 34 38 38 37 36 35 35 35 37 38 37 38 40 39 33 31 30 31 31 33 33 31 33 35 37 32
36 43 49 48 48 45 41 32 33 31 28 25 26 29 31 32 34 34 34 34 33 33 34 34 34 35 37 36 37 34 30 30 30 30 28 28 27 24 21 22 26 27 26
45 46 47 46 42 37 29 25 27 26 29 31 30 31 32 32 32 31 31 32 33 34 34 33 33 33 32 33 31 25 25 26 29 29 28 25 24 22 19 18 20 21 22
46 48 47 43 35 31 26 25 29 28 27 29 31 30 30 30 30 31 31 32 33 34 33 33 32 31 27 27 22 20 20 20 21 24 25 23 23 22 19 19 16 17 19
48 47 43 34 28 30 26 28 24 26 30 30 28 28 29 29 30 30 33 32 32 32 33 33 32 29 24 20 16 15 14 14 17 21 23 26 24 19 13 11 12 12 13
46 41 34 24 26 33 31 26 23 29 28 26 26 28 30 30 31 31 31 31 31 32 32 33 32 28 23 15 13 12 11 14 17 21 24 24 15 10 6 4 5 7 9
43 34 30 31 29 28 24 23 27 28 25 24 27 30 31 32 31 30 28 29 30 29 31 30 30 24 22 14 11 9 10 13 16 19 22 23 15 9 5 4 4 4 4

GFSMW_700_spd_003.txt.gz
Wind_Speed
11 10 7 5 9 10 16 17 17 25 28 29 31 31 32 29 31 32 32 30 27 27 28 29 29 30 31 30 29 28 27 26 27 29 31 29 30 30 33 34 35 37 44
6 7 8 13 11 10 15 15 21 28 28 29 32 35 38 34 36 34 31 31 32 32 31 31 32 33 35 35 35 34 33 32 32 34 37 34 30 30 30 35 36 36 37
9 10 13 17 17 15 14 21 27 32 34 33 35 36 41 38 41 35 31 32 34 36 37 38 39 40 40 38 38 38 38 36 37 38 40 43 43 40 36 32 36 37 37
12 16 21 24 28 28 31 32 33 35 38 37 41 40 42 41 47 42 36 35 35 36 37 39 42 46 46 41 42 43 43 42 43 42 42 44 46 45 47 36 37 40 39
20 24 27 30 31 31 31 33 35 36 35 37 38 39 42 42 50 44 42 40 40 42 42 41 45 45 42 47 40 43 42 45 48 48 47 48 49 45 49 55 41 40 41
21 24 26 28 31 30 33 35 36 36 39 39 39 38 44 50 50 43 43 45 44 43 44 45 44 49 46 53 43 47 52 52 50 56 51 52 52 50 49 51 49 44 43
19 23 27 31 29 29 29 32 35 36 38 41 43 47 49 45 43 45 45 44 45 47 46 45 42 51 55 56 53 55 59 59 62 61 54 56 52 47 49 48 47 50 48
21 27 24 28 27 25 30 36 37 37 42 48 52 47 45 45 45 46 47 49 50 48 48 45 40 51 52 55 54 63 67 64 62 54 49 49 51 49 47 47 49 52 51
23 19 27 28 29 33 35 40 44 48 53 49 46 48 47 46 49 50 50 49 45 40 36 34 35 43 53 58 61 63 56 49 40 42 44 45 45 46 47 47 47 49 54
17 26 28 31 34 36 38 44 52 53 48 48 45 47 51 53 53 51 48 40 32 28 29 30 31 39 46 44 44 41 42 46 46 43 41 42 45 47 47 47 46 47 50
30 33 36 37 36 40 44 49 48 47 47 47 49 50 53 56 58 54 47 33 30 31 31 29 29 37 43 42 39 37 38 39 40 40 42 44 45 46 46 45 45 45 46
31 35 39 41 43 44 45 45 47 48 45 46 48 53 54 53 52 50 42 33 32 33 28 27 29 32 35 36 38 40 42 44 43 43 43 43 42 43 42 42 42 43 43
37 40 40 45 50 47 44 46 43 42 45 50 52 54 53 50 48 39 33 34 36 36 32 30 30 32 34 36 39 41 42 42 42 42 42 41 41 41 41 43 45 46 48
42 47 48 46 45 42 40 40 44 45 51 55 55 54 51 46 34 30 35 36 37 35 34 31 29 29 31 34 38 40 40 41 40 39 40 40 40 40 41 41 43 44 46
51 53 48 43 41 39 40 43 45 52 55 54 53 51 44 32 28 33 36 36 35 34 30 32 35 35 36 39 40 41 41 40 40 39 39 39 41 43 45 48 47 48 49
50 48 43 38 39 38 42 46 51 53 54 55 50 40 29 26 26 26 26 26 25 27 32 36 39 40 41 42 43 43 43 42 41 41 40 42 45 44 45 47 49 50 52
50 51 46 37 33 39 46 47 49 51 53 50 40 30 28 24 28 31 33 33 29 31 36 39 41 42 41 42 43 43 43 42 41 42 44 46 45 41 38 37 38 40 42
51 47 37 35 40 43 47 50 50 49 45 37 33 32 30 29 28 30 31 30 33 38 39 40 40 39 39 41 43 43 42 41 41 43 45 41 35 33 35 36 37 38 39
52 40 38 44 43 46 49 49 46 41 34 34 33 30 27 28 30 33 36 36 37 40 39 38 37 39 40 42 42 41 41 39 39 41 34 35 34 33 33 35 37 38 38
45 35 42 45 44 48 48 43 39 33 29 28 31 34 36 35 32 32 35 36 36 35 35 36 38 39 40 40 40 39 38 37 37 31 31 32 34 33 31 32 33 31 26
43 40 41 46 48 46 41 34 34 34 32 33 33 30 32 32 32 33 35 35 35 35 36 36 36 37 38 37 37 36 35 35 30 30 29 29 30 28 27 27 26 25 22
39 40 43 45 45 40 35 33 34 34 35 30 30 32 32 32 32 33 34 34 34 34 35 35 34 33 33 34 33 30 30 28 28 27 27 27 26 24 24 24 22 22 22
40 43 45 44 40 34 32 31 31 34 29 27 33 32 31 31 33 34 34 34 34 34 34 34 34 32 30 30 28 27 23 23 22 22 25 27 27 21 18 16 16 16 17
41 43 42 40 34 29 28 38 38 27 26 32 32 30 30 33 35 35 35 34 34 33 34 34 33 31 29 25 23 19 18 16 15 18 22 26 23 18 13 10 9 10 11
42 43 41 37 32 29 28 24 22 25 30 31 30 30 34 36 35 34 33 32 32 33 34 34 33 31 27 20 18 15 12 10 13 15 19 23 19 17 13 11 9 9 9
42 41 37 35 32 28 25 23 25 28 31 28 29 33 36 36 33 30 29 30 31 31 33 32 30 29 25 20 15 11 8 8 11 14 16 19 21 15 11 9 9 9 8

GFSMW_700_spd_009.txt.gz
Wind_Speed
13 12 12 10 6 9 8 10 13 16 17 21 24 25 25 24 25 28 30 32 35 37 39 36 31 32 36 36 37 38 39 39 35 37 35 34 34 36 36 36 38 37 37
6 7 7 9 12 13 8 6 11 14 18 22 25 28 30 30 31 33 36 39 42 41 41 40 39 38 39 40 40 41 44 43 42 42 43 43 42 40 36 36 38 37 35
3 5 9 12 15 14 11 9 12 16 21 25 27 29 32 35 37 37 39 42 41 39 39 40 41 42 44 46 45 45 45 47 46 44 45 48 48 44 43 41 39 38 35
6 8 13 14 14 16 14 14 17 22 26 29 31 33 36 37 39 43 47 43 42 44 45 42 41 41 44 46 48 49 49 49 51 51 51 54 52 50 46 49 48 43 43
9 15 14 16 19 18 15 17 22 26 29 32 35 38 40 41 44 48 44 43 46 46 42 42 46 48 47 48 51 54 55 53 51 56 57 61 56 54 53 50 51 50 45
14 17 18 20 20 22 21 25 29 31 34 37 40 41 45 48 49 44 45 46 43 43 47 47 48 47 50 52 52 53 56 56 54 55 59 63 59 60 62 55 57 54 54
16 20 20 22 22 24 26 30 32 35 38 41 45 47 49 50 47 45 42 46 49 50 51 51 52 52 52 55 53 49 47 45 44 48 53 57 68 59 65 62 64 61 60
22 19 22 24 28 29 34 36 35 37 44 48 49 45 41 41 41 39 43 49 52 52 52 54 56 54 52 46 41 36 35 33 36 41 50 51 46 39 41 36 46 49 48
15 18 22 26 31 34 35 37 44 44 45 46 43 40 40 41 41 43 47 49 49 48 51 53 51 43 39 35 31 32 31 36 31 36 35 30 31 33 38 31 33 39 43
19 22 25 28 32 38 44 49 49 50 48 47 45 44 41 41 43 45 49 52 51 50 46 42 37 33 32 31 31 34 33 35 37 39 36 33 34 31 31 36 38 40 42
25 27 30 35 41 46 50 49 47 48 48 47 46 46 46 46 50 52 54 54 50 43 36 32 29 30 33 33 29 29 31 30 34 34 33 32 33 35 34 34 36 38 41
28 29 36 41 43 40 40 45 44 44 45 47 47 41 48 51 53 55 56 52 44 34 29 28 28 34 34 37 32 30 31 30 31 33 34 36 37 37 36 36 37 38 40
28 36 37 38 42 43 42 47 43 43 42 38 42 44 50 53 54 53 46 38 31 29 28 26 30 30 30 34 31 30 32 30 30 33 35 35 36 36 36 36 37 38 40
38 42 42 43 46 43 50 43 37 37 40 43 47 52 54 52 47 42 36 32 30 29 28 29 32 35 34 32 34 34 35 36 35 35 34 34 35 36 36 37 39 39 41
43 47 46 45 47 49 40 32 35 41 44 45 49 51 49 45 41 38 34 33 30 31 33 32 31 32 36 38 38 36 37 37 36 33 33 34 35 35 37 40 40 41 42
48 48 47 49 51 38 33 39 42 44 45 48 49 47 42 37 37 36 36 37 35 33 33 32 32 32 33 34 35 35 36 35 36 37 36 36 36 36 37 38 39 40 41
45 48 41 46 35 40 45 41 42 45 46 46 45 41 36 36 38 38 34 32 31 30 29 31 33 34 34 35 35 35 37 37 37 37 37 37 35 35 36 36 36 36 35
41 40 36 37 40 42 42 42 43 45 45 44 41 38 36 37 36 31 30 29 29 30 33 35 36 35 34 35 35 36 36 35 35 35 35 35 34 32 33 32 31 32 33
42 37 38 40 41 41 43 45 46 45 43 41 41 36 36 36 31 31 31 29 31 34 37 37 36 36 35 35 35 36 35 33 33 33 33 34 31 27 28 29 31 32 31
29 36 37 38 39 41 43 44 44 43 41 39 38 36 35 31 33 32 31 33 37 38 36 35 35 35 34 34 35 36 36 35 34 32 30 27 25 24 25 29 33 35 32
30 33 35 37 39 41 43 44 43 40 38 35 36 31 30 34 33 32 34 37 38 36 34 33 34 34 35 35 36 36 35 34 32 30 25 21 20 21 25 29 28 25 21
33 36 38 41 40 42 43 43 40 37 35 32 30 29 31 32 32 34 37 38 34 33 32 34 34 34 33 32 31 31 30 30 29 24 21 20 19 21 24 21 18 15 11
37 40 41 40 39 42 42 41 37 36 34 30 28 29 31 31 33 36 37 33 32 33 34 35 36 34 31 29 28 28 26 24 23 20 19 19 19 20 17 13 10 7 7
42 42 39 39 40 41 39 37 37 36 34 29 27 29 29 31 34 35 34 32 32 34 35 37 36 33 30 28 26 21 19 17 15 14 14 14 15 17 12 7 6 7 6
41 39 39 41 42 43 38 35 34 33 30 25 27 27 29 33 33 32 31 31 32 35 38 37 35 33 29 27 23 20 16 13 11 11 11 10 12 15 11 8 8 7 7
38 40 41 43 43 41 36 34 31 29 24 24 25 27 30 31 30 28 28 29 31 35 35 34 34 30 29 25 18 16 13 11 10 10 9 8 9 12 16 16 12 10 9

GFSMW_700_spd_012.txt.gz
Wind_Speed
16 15 13 13 12 11 11 13 15 16 18 18 20 23 25 26 27 27 29 32 34 36 38 38 36 35 38 37 36 37 38 38 39 41 43 44 47 45 43 44 42 42 43
12 12 11 12 12 13 13 12 13 16 17 21 24 27 29 30 32 35 35 37 40 42 45 43 39 39 39 38 36 37 40 43 42 45 45 49 43 43 50 46 46 45 44
9 9 10 11 14 15 16 17 17 18 21 24 27 31 35 37 38 39 40 41 43 47 44 43 44 41 37 39 40 42 45 48 48 49 50 48 44 35 35 49 41 43 45
7 7 10 14 15 18 18 16 19 23 26 28 31 34 38 40 42 45 47 49 51 48 43 40 40 42 44 45 45 46 47 49 51 52 51 57 53 56 44 47 50 47 51
8 11 14 16 18 18 18 20 23 27 29 32 35 39 40 44 50 54 54 54 48 44 39 40 42 44 43 46 47 48 51 54 57 57 57 55 55 59 60 59 48 51 54
12 14 17 18 20 21 21 22 25 29 31 37 39 42 44 49 52 50 49 48 46 39 42 42 41 46 48 50 50 53 55 58 57 55 54 53 56 62 62 56 59 50 45
15 19 20 20 23 25 25 27 29 35 42 43 46 51 51 51 49 49 48 48 44 46 42 49 54 53 54 55 59 59 57 54 51 46 44 44 44 46 49 53 61 62 64
19 17 19 23 26 28 29 33 37 39 43 48 47 45 46 47 47 48 48 48 48 45 54 54 55 54 54 54 52 47 46 41 40 40 38 35 39 43 38 38 43 39 45
20 23 24 26 29 32 36 37 42 44 43 44 47 47 46 45 45 47 47 44 48 54 55 54 53 50 46 42 39 34 34 38 39 41 40 34 31 34 35 32 38 37 32
23 22 23 26 28 32 37 38 40 43 44 44 44 44 45 45 44 42 48 52 54 54 53 47 42 37 33 29 34 35 34 31 31 28 29 30 33 34 28 30 32 31 33
28 27 24 26 32 35 38 42 43 42 44 40 37 38 38 42 44 47 51 53 50 45 39 34 30 29 26 31 37 39 34 29 29 31 31 31 33 33 35 34 31 32 32
23 29 30 35 39 42 40 42 45 39 33 31 33 40 43 46 48 51 50 43 38 34 31 29 27 26 34 39 36 36 33 31 30 31 33 33 32 34 36 36 36 35 35
30 31 36 42 44 43 42 41 36 33 33 37 43 45 47 49 50 48 41 35 32 26 27 28 30 32 35 38 38 35 32 33 34 35 35 36 36 36 36 36 37 37 37
33 39 43 42 40 39 37 37 36 38 39 39 43 47 48 48 46 40 36 35 32 27 29 32 35 37 36 36 34 37 38 39 39 38 35 34 33 34 33 35 37 37 39
39 43 42 36 34 34 35 36 36 38 42 45 47 47 47 44 39 36 35 37 35 32 30 30 30 30 31 33 33 34 36 36 36 35 34 34 35 34 36 38 38 38 39
41 43 36 31 34 37 36 35 38 41 43 45 46 46 44 41 36 35 36 34 31 29 28 27 28 32 34 37 36 36 36 36 35 35 34 34 35 35 36 37 37 36 37
39 35 31 35 37 37 35 36 39 41 43 44 44 43 40 37 34 34 31 29 30 29 29 32 35 37 36 36 36 36 35 34 33 32 32 33 33 34 35 34 33 33 34
34 29 31 36 33 32 36 38 38 40 42 42 42 41 39 35 35 30 31 30 30 31 34 37 37 35 34 35 34 34 34 34 34 33 33 33 32 31 31 32 31 31 32
30 33 29 29 33 35 37 39 41 43 43 42 40 37 36 35 30 32 33 32 33 35 36 34 33 33 33 36 37 37 37 36 34 33 32 31 30 29 29 29 29 29 28
31 28 29 33 36 37 40 42 44 44 43 40 37 35 34 33 31 33 33 34 36 36 33 32 32 34 35 36 37 38 37 35 33 30 28 28 27 25 25 26 27 28 29
30 31 35 38 40 41 41 43 44 44 43 38 36 34 33 30 31 32 33 35 35 34 32 33 34 35 37 36 34 33 33 31 30 28 25 23 22 21 21 23 25 25 22
34 37 40 42 41 41 43 43 43 38 37 36 35 33 30 28 30 32 33 34 34 32 33 34 36 37 36 33 30 29 28 28 27 23 21 19 19 19 19 21 19 15 12
41 45 46 44 40 41 43 43 41 38 35 34 31 33 26 28 29 32 32 32 31 33 34 36 38 36 34 31 28 27 26 23 21 20 18 17 17 16 17 16 12 9 8
47 48 42 41 41 43 44 42 41 32 36 34 31 24 26 26 28 30 30 30 31 33 35 38 37 36 32 29 28 24 19 17 15 14 13 12 11 13 13 8 5 6 4
44 40 42 44 46 46 45 41 36 32 31 27 21 23 24 26 26 27 26 27 30 34 36 36 36 35 31 28 24 20 17 14 11 10 10 8 9 11 12 3 1 2 2
40 42 43 44 45 45 39 35 31 29 25 18 20 22 24 24 23 22 24 27 29 34 35 34 34 31 30 25 19 16 14 12 10 9 9 8 7 7 9 10 10 7 5

GFSMW_700_spd_015.txt.gz
Wind_Speed
20 27 20 20 20 19 18 17 17 19 21 23 22 24 25 29 32 35 39 38 40 42 44 44 46 47 48 41 40 37 36 35 35 41 41 40 40 45 46 46 48 48 48
16 20 20 18 15 12 12 14 15 16 19 23 24 26 29 32 35 38 41 41 45 44 47 50 52 53 49 45 40 36 37 39 39 42 45 50 48 45 44 44 46 46 45
6 13 13 13 13 15 17 19 22 23 22 25 29 31 33 36 38 40 42 43 46 51 53 53 53 49 44 42 40 41 43 43 41 43 46 47 50 45 36 36 48 45 48
7 9 11 12 15 17 20 23 24 24 25 29 33 34 37 40 41 44 49 53 55 53 49 48 49 49 44 46 47 43 44 48 49 49 50 49 50 50 52 47 39 45 44
11 12 14 16 18 21 24 26 27 29 30 33 35 38 42 45 46 51 55 52 52 51 50 48 48 45 46 48 46 51 54 55 57 57 58 58 56 52 56 54 49 48 47
15 16 17 21 25 25 24 25 27 30 33 33 39 44 47 50 50 50 51 51 51 51 50 50 50 50 51 51 59 59 58 59 60 59 58 57 57 53 54 54 55 56 53
15 16 17 13 22 27 27 27 27 30 38 44 45 47 49 47 47 47 48 49 51 51 51 51 51 51 56 63 63 61 59 59 50 49 47 44 45 46 47 48 46 49 56
18 20 21 22 24 29 31 32 33 33 39 44 46 45 45 46 47 47 46 47 47 46 47 50 55 59 57 52 51 46 41 39 42 38 36 37 39 40 43 43 45 46 46
9 11 13 15 29 31 33 34 34 35 40 42 42 42 41 42 42 43 43 44 46 50 53 54 54 51 49 43 38 34 33 37 37 36 36 33 32 31 36 28 32 34 35
13 16 18 21 27 33 34 40 44 45 45 40 37 38 39 40 42 44 47 50 52 53 52 47 40 40 35 33 31 32 37 38 33 27 29 29 29 28 28 30 30 28 30
16 19 22 24 27 27 33 38 41 41 36 36 40 40 41 44 46 49 50 52 50 46 37 33 28 29 30 31 32 35 37 37 36 29 28 29 29 29 29 28 26 25 30
16 19 23 25 29 36 42 42 37 33 35 36 37 39 43 46 46 49 50 50 45 34 31 34 34 34 36 35 32 31 34 36 31 30 28 32 32 33 33 33 32 31 29
22 26 28 34 37 41 42 34 34 38 36 36 38 40 41 45 46 47 45 44 39 35 35 32 31 32 35 37 38 35 35 36 36 35 35 37 37 36 36 36 36 35 32
29 31 40 41 44 34 29 36 36 35 36 38 40 42 43 45 45 43 40 37 35 36 34 32 30 30 30 31 32 32 34 35 36 36 37 36 35 34 34 34 35 36 37
30 40 41 38 32 26 35 37 34 35 38 40 41 40 41 41 38 39 38 37 37 33 31 30 30 30 31 31 36 36 36 35 35 35 35 34 32 35 33 35 36 37 38
40 38 35 31 29 31 30 28 35 40 40 40 36 32 36 39 38 37 35 35 32 31 30 29 31 31 30 36 35 33 35 35 34 34 34 34 35 35 35 34 35 35 36
36 33 34 27 25 26 27 31 34 32 35 36 35 34 40 37 36 32 30 28 30 29 29 28 28 32 31 35 34 34 35 36 36 36 35 34 32 33 34 34 37 35 34
35 33 28 27 30 31 32 36 35 33 33 31 33 43 42 36 32 29 28 28 26 26 26 28 32 33 32 37 38 38 39 39 37 36 34 33 32 31 32 32 34 33 32
35 30 28 33 36 31 32 34 38 36 37 31 34 39 38 29 33 30 28 26 26 27 28 31 33 34 35 37 39 40 40 38 35 33 31 29 28 28 29 31 31 30 28
27 28 28 30 31 33 34 35 36 37 36 32 31 45 36 31 31 30 26 26 26 29 34 31 34 36 37 39 39 36 35 34 32 30 28 26 26 25 26 26 26 26 25
24 27 30 32 34 40 38 35 34 36 34 31 36 43 38 27 31 29 24 26 26 30 32 35 35 37 38 37 37 34 32 32 31 29 25 20 21 23 22 22 23 24 23
28 30 32 34 43 37 34 35 35 37 41 44 43 39 36 34 28 24 23 27 28 31 33 35 37 37 35 36 36 31 31 30 28 25 22 20 20 21 21 20 20 20 16
31 32 33 36 33 34 35 36 36 37 38 36 33 29 34 25 20 23 24 29 28 31 33 37 38 37 36 34 33 30 26 22 22 21 20 19 17 16 15 16 14 10 8
37 32 32 33 35 36 36 36 42 38 33 30 30 27 21 20 23 21 24 26 27 29 34 37 36 36 35 33 31 25 20 19 18 17 15 14 12 11 13 9 4 4 5
31 33 32 35 37 38 38 41 39 35 31 30 25 17 19 22 22 23 24 24 26 28 32 35 34 36 35 32 27 22 19 17 15 14 12 10 9 10 12 10 4 3 4
36 32 33 37 37 40 42 39 36 32 28 22 16 18 18 19 20 21 22 24 23 27 31 32 32 33 34 28 22 18 16 15 14 12 11 10 9 8 8 7 4 1 1

GFSMW_700_spd_018.txt.gz
Wind_Speed
20 24 24 28 21 19 20 24 19 16 19 23 24 26 27 29 28 31 34 38 41 40 42 45 46 49 53 52 49 47 46 44 43 43 43 43 42 41 39 40 42 45 45
24 26 25 25 19 16 12 14 16 17 19 23 24 26 29 31 32 34 44 43 47 48 47 52 54 53 49 47 46 45 46 45 42 43 46 48 47 43 42 42 41 41 42
23 26 24 14 12 13 14 17 21 23 24 24 28 28 31 32 37 42 44 48 48 48 50 50 49 50 50 50 47 46 44 46 44 43 44 46 51 51 48 45 40 38 37
8 7 9 11 13 15 18 20 25 30 30 29 31 33 37 39 41 44 45 49 48 48 49 48 49 50 51 51 50 49 49 50 53 51 49 52 54 55 59 54 51 44 45
8 9 11 17 19 19 21 24 27 31 34 31 32 34 37 40 43 44 46 47 48 48 50 49 50 50 50 50 51 53 53 53 53 55 60 59 54 46 48 59 58 56 50
9 12 15 18 24 27 29 27 26 27 30 38 39 39 40 42 46 47 48 49 49 48 47 48 49 49 51 52 53 54 56 58 58 57 50 49 53 53 48 45 53 55 54
6 3 2 7 16 25 29 29 29 29 32 35 40 44 48 51 50 48 45 43 44 45 45 48 51 53 57 58 58 56 51 44 38 45 38 39 41 39 39 40 41 46 48
8 8 13 17 21 26 30 29 31 32 35 40 45 49 51 47 41 42 42 42 45 47 50 52 53 53 53 52 47 41 40 37 36 34 37 39 37 33 33 35 35 38 40
8 11 11 18 26 33 34 32 34 37 40 43 45 42 40 43 42 40 43 45 46 46 49 50 52 52 48 37 33 34 32 33 36 35 26 27 28 29 27 28 29 31 30
11 14 19 18 25 35 37 34 39 44 47 43 38 41 40 41 43 43 44 45 47 49 49 48 44 34 35 36 36 36 35 35 32 32 33 32 27 26 26 26 25 27 28
13 18 22 30 36 34 40 35 44 44 41 38 41 40 39 41 42 46 46 47 48 48 44 40 33 35 36 37 36 37 34 30 31 26 25 28 29 27 27 27 27 27 26
16 29 29 32 37 41 39 43 41 41 37 43 39 38 38 41 43 46 45 45 45 42 40 37 36 32 32 33 36 37 37 35 32 27 30 32 33 33 33 36 35 33 32
26 31 33 37 40 41 39 35 36 37 46 38 38 40 40 41 45 48 41 42 42 40 37 34 32 31 32 32 32 32 33 31 33 34 35 35 33 34 33 33 33 33 35
29 35 37 42 39 34 33 33 35 36 42 43 48 46 45 48 48 42 44 41 40 38 35 31 32 31 31 32 33 33 34 33 34 33 33 34 34 34 31 31 32 33 34
37 37 41 38 37 32 28 35 35 37 43 41 48 40 40 38 46 46 49 40 36 38 36 33 31 30 31 30 33 33 31 32 33 33 33 33 32 33 34 34 37 35 34
39 40 38 39 35 30 28 28 32 36 40 35 39 34 47 43 42 49 48 38 34 39 37 33 32 31 32 35 35 34 33 34 37 37 36 35 34 32 28 30 34 34 33
37 38 36 29 25 25 27 30 30 32 42 45 46 40 45 47 37 47 45 37 35 36 36 33 33 33 33 36 38 38 38 39 39 40 39 36 34 33 33 35 36 34 33
35 35 28 24 25 34 29 31 38 43 39 39 43 40 51 42 34 45 46 36 34 36 33 33 35 34 34 37 40 40 40 40 38 37 35 32 30 29 31 32 32 32 32
31 24 25 27 32 31 33 41 44 38 32 34 41 42 49 33 31 48 43 29 35 34 32 33 36 35 37 39 41 40 38 37 36 33 30 28 27 26 26 28 29 29 29
28 26 26 30 31 35 41 44 40 38 35 39 44 45 40 39 38 46 29 30 36 30 33 32 31 35 39 39 38 39 37 35 33 31 28 24 23 23 22 23 24 25 23
22 25 30 33 36 42 44 37 38 40 40 45 46 41 38 37 38 33 28 37 31 32 33 30 33 37 38 36 38 38 36 35 33 28 24 20 18 20 22 22 23 24 24
26 28 32 36 39 40 38 40 41 47 45 42 39 34 28 20 26 28 24 28 31 29 28 30 35 38 36 36 37 36 32 28 27 25 23 21 19 18 19 20 20 20 19
32 38 35 41 37 33 34 35 49 48 44 39 35 30 28 27 23 20 26 28 28 27 28 31 36 38 36 36 36 29 25 23 23 22 20 18 17 15 14 15 15 12 8
44 41 42 34 31 32 36 46 45 42 40 37 32 27 22 18 19 20 23 26 26 26 27 31 35 37 35 37 31 25 20 19 19 19 17 16 14 12 12 12 6 3 5
40 41 31 34 39 38 41 42 41 39 37 32 27 19 18 19 18 19 22 23 23 25 27 30 33 36 34 35 31 24 21 19 19 18 16 14 12 12 11 11 7 3 3
39 36 36 41 41 42 42 40 39 36 33 28 20 19 18 16 17 18 20 22 23 24 26 28 29 32 32 33 29 22 19 18 18 17 15 14 13 12 12 11 11 8 4

GFSMW_700_spd_021.txt.gz
Wind_Speed
24 27 26 24 26 24 22 22 24 22 20 21 21 23 26 28 24 24 28 32 36 47 46 48 49 51 48 46 45 44 44 44 43 47 47 46 44 43 42 43 44 42 37
26 27 27 27 28 23 21 19 15 17 21 24 28 26 25 27 31 33 37 44 46 48 50 50 49 48 49 47 47 47 48 47 44 46 48 51 47 44 44 44 44 41 40
22 22 23 21 19 15 14 17 18 19 24 27 27 29 30 31 33 33 35 40 45 48 48 47 49 49 50 48 47 48 48 47 46 45 45 49 52 54 48 46 45 45 45
25 27 22 15 14 15 18 20 22 24 26 26 28 31 34 35 37 40 43 43 45 50 49 49 49 47 46 46 47 48 50 51 51 49 48 47 47 52 59 52 50 51 50
18 17 14 14 15 17 19 18 25 31 32 32 33 34 35 36 38 42 46 49 48 45 45 46 46 47 48 48 49 51 53 54 53 53 55 53 47 44 48 58 57 53 48
13 11 15 18 20 21 25 30 28 25 28 32 36 39 43 45 46 45 43 40 42 45 44 45 47 48 48 49 51 51 51 50 46 44 43 41 45 46 41 40 44 47 47
12 13 16 17 21 26 31 33 31 32 30 31 36 40 44 45 44 42 42 45 44 44 44 44 47 48 48 49 50 48 44 37 37 37 40 35 36 37 38 38 36 36 35
7 9 13 20 25 30 33 34 37 40 38 39 44 46 45 43 44 46 45 46 45 45 46 48 49 50 50 48 45 40 38 37 37 36 36 36 36 30 26 29 28 28 28
8 11 16 24 27 34 36 36 42 44 46 44 51 46 45 44 45 46 45 45 46 46 47 46 47 46 45 40 38 41 42 40 39 38 35 28 29 29 26 20 27 28 30
15 16 21 25 30 31 31 38 43 45 47 49 48 43 44 47 46 47 48 46 46 48 46 45 44 42 38 36 38 39 39 36 31 30 30 31 31 28 31 26 26 28 29
21 24 28 30 30 32 37 41 41 41 43 43 43 42 44 41 45 47 42 47 45 45 44 46 43 40 39 37 34 34 36 34 33 30 27 25 25 32 33 28 27 26 25
23 23 27 30 40 35 42 37 38 40 40 42 43 44 43 47 48 49 47 47 43 47 49 47 41 40 37 35 35 35 35 34 33 32 30 33 34 33 32 35 36 34 36
25 30 30 37 40 40 38 42 41 39 40 42 43 45 46 49 44 50 43 42 39 42 45 42 39 38 36 35 34 34 33 32 32 33 34 36 35 33 33 34 35 36 35
29 35 36 42 41 41 41 37 36 38 40 41 41 46 45 45 52 54 51 44 41 38 41 40 42 41 36 34 32 31 31 32 33 33 34 34 34 34 33 34 34 34 33
34 39 39 38 40 40 38 36 36 37 38 40 41 46 50 49 46 50 48 60 36 36 44 43 42 42 35 30 31 32 33 35 37 38 38 37 37 35 35 36 36 35 35
39 35 37 38 38 37 37 36 35 37 37 38 44 50 48 42 45 48 44 38 39 45 39 37 41 39 30 32 35 38 40 40 42 43 42 40 37 36 35 37 36 36 36
37 36 35 37 36 32 31 37 40 40 42 46 51 52 43 47 49 51 44 42 27 44 42 34 40 31 33 37 40 43 44 43 40 39 39 37 34 32 31 32 33 33 35
32 32 32 27 26 30 37 43 45 49 51 54 48 44 44 44 47 49 40 38 36 45 35 36 32 32 34 37 41 43 42 40 39 37 34 33 31 29 28 28 29 29 29
30 27 23 25 32 39 44 46 50 52 51 45 47 46 46 43 41 39 36 37 34 28 33 30 29 31 33 38 42 40 41 39 37 34 32 29 27 25 24 25 26 25 24
30 31 32 36 39 42 45 47 47 45 46 45 48 48 44 41 35 30 23 26 34 33 29 27 27 29 35 39 41 40 42 38 32 26 23 21 21 21 20 23 21 22 21
29 32 37 40 42 41 41 41 42 45 45 46 46 43 39 33 28 23 28 27 28 27 26 26 27 32 36 39 39 40 38 33 28 26 24 21 18 17 18 20 20 19 19
32 37 40 41 40 41 41 42 44 44 44 43 42 40 35 29 25 22 21 24 25 24 24 25 26 31 34 37 37 36 31 27 27 26 23 21 19 17 15 15 15 16 15
37 39 41 42 41 41 41 42 43 41 40 39 37 35 30 23 17 18 19 21 22 23 24 25 27 30 33 34 35 32 26 23 23 23 22 20 18 16 14 15 16 12 8
37 40 41 40 40 40 39 39 42 40 35 34 33 30 24 19 17 17 20 20 21 22 23 24 27 29 31 34 33 29 21 20 21 20 19 18 17 17 15 13 12 8 5
38 39 38 39 39 37 38 39 38 35 31 30 29 25 21 19 16 17 18 20 20 21 22 24 26 28 29 32 34 32 25 21 21 20 18 17 17 16 13 12 10 7 4
39 38 37 38 38 37 39 39 37 35 31 29 24 22 20 18 16 16 17 19 19 19 20 22 24 26 28 29 31 32 27 23 20 19 18 17 17 16 13 12 13 13 11

GFSMW_700_spd_024.txt.gz
Wind_Speed
25 26 28 24 22 21 21 22 24 25 20 15 17 19 23 26 29 32 32 34 35 37 39 46 44 47 49 51 52 52 51 50 50 52 51 48 44 43 41 40 42 44 45
27 28 25 22 22 21 27 22 22 16 14 16 19 21 23 26 27 29 32 36 38 39 42 44 47 51 52 50 49 49 49 47 48 49 50 54 51 48 45 43 43 45 46
25 26 24 25 26 21 14 18 18 18 21 24 27 28 27 27 30 32 34 35 37 41 47 51 51 49 47 47 48 48 48 48 49 49 50 53 57 57 53 49 47 46 47
19 19 19 21 17 16 18 18 20 23 25 28 26 24 26 26 27 30 35 38 41 44 45 46 48 50 50 49 49 49 49 49 50 51 50 50 51 55 61 55 50 49 50
18 20 19 16 18 22 24 24 24 28 27 28 29 31 34 36 39 42 41 41 41 42 45 47 48 49 51 51 50 51 51 51 52 53 54 52 45 43 46 54 50 44 41
17 14 12 14 15 18 17 24 27 30 33 35 35 37 37 41 46 44 43 42 43 46 47 47 48 48 49 49 50 50 50 49 48 45 40 39 40 40 39 40 39 40 35
16 16 18 24 24 21 25 31 33 35 38 43 44 44 43 45 49 47 44 46 43 43 45 49 50 50 51 50 49 49 47 45 41 39 38 37 37 37 36 38 36 34 30
18 19 16 19 20 25 26 31 33 35 39 46 46 45 45 45 44 44 49 45 44 46 46 48 49 47 47 48 48 47 45 43 41 37 34 32 30 28 22 22 29 30 25
14 14 15 18 21 22 25 29 34 39 46 46 43 44 43 43 45 46 44 43 43 45 49 48 43 41 44 47 47 45 42 41 40 37 33 29 26 25 29 30 25 22 27
12 15 18 20 23 27 28 33 42 41 42 42 44 42 41 44 46 47 45 44 42 49 48 46 46 44 42 45 44 45 41 37 36 33 32 30 28 26 27 29 31 33 30
15 16 22 25 30 31 34 44 45 42 43 42 41 41 44 45 46 48 48 48 49 50 42 47 44 35 35 37 41 42 40 38 35 34 32 31 31 31 33 34 34 35 37
26 31 24 27 34 39 42 46 40 42 42 40 40 42 45 47 49 50 51 54 46 47 49 50 34 30 34 35 40 39 35 32 31 31 32 33 35 36 36 36 36 37 39
28 24 26 31 37 41 42 41 41 41 40 39 40 43 46 48 49 54 55 52 39 42 45 37 30 32 34 34 39 37 32 30 32 34 36 38 38 38 37 37 37 37 37
24 27 30 38 38 39 40 39 40 39 40 41 43 45 46 47 49 57 55 46 42 47 43 41 39 30 33 34 36 36 33 33 35 38 40 42 42 42 41 41 40 40 39
25 30 37 39 38 37 39 42 40 42 43 45 45 43 47 52 55 42 45 49 50 46 41 41 32 34 32 34 36 34 34 37 40 43 42 42 42 41 40 40 40 40 38
32 36 39 37 37 41 41 40 41 41 43 44 45 50 54 50 43 42 45 47 47 45 42 23 33 28 34 33 35 35 37 41 44 43 41 41 41 40 38 36 36 37 36
37 38 36 39 39 38 38 39 39 43 47 49 51 51 42 44 44 44 41 38 36 33 23 27 25 31 31 34 34 38 42 44 42 42 43 41 38 36 34 31 30 31 31
37 36 35 36 34 36 37 39 43 46 48 48 42 41 42 43 41 41 36 31 24 20 26 23 23 29 32 33 36 39 42 42 42 40 36 34 32 29 27 26 25 26 26
32 33 32 32 34 36 39 42 45 46 42 40 39 40 42 41 39 38 33 28 22 29 20 24 27 29 30 32 36 40 41 41 37 31 28 30 29 26 24 22 23 23 20
31 31 30 34 36 37 40 43 41 40 40 40 41 42 41 39 38 34 30 28 27 21 23 25 27 28 31 34 36 41 41 39 31 25 24 25 24 22 21 21 21 20 17
30 30 33 34 36 40 41 40 38 38 39 42 42 40 38 37 33 29 23 18 18 21 23 25 26 27 31 33 35 38 39 36 28 27 27 24 21 19 17 17 18 17 14
28 32 34 36 38 39 39 38 38 39 39 37 37 35 34 33 28 22 19 18 19 21 23 24 25 27 29 31 33 36 37 31 27 26 26 24 22 20 18 16 16 16 15
30 32 35 37 37 38 38 40 39 38 36 35 35 34 32 27 23 21 19 18 18 21 22 23 23 25 27 29 30 32 32 26 25 24 25 23 22 20 18 16 16 14 10
30 32 35 36 36 36 38 38 37 37 35 33 33 32 28 24 21 21 19 18 19 21 21 21 22 25 27 28 28 28 28 25 23 22 23 22 21 21 18 15 15 11 7
31 34 35 35 34 36 37 35 36 37 35 32 32 29 26 23 22 20 18 18 18 19 19 20 22 25 26 27 28 29 29 29 26 23 22 22 21 19 15 12 12 12 9
33 34 33 33 33 35 37 36 36 35 32 31 30 27 23 22 21 20 19 19 19 19 19 20 22 24 25 26 26 26 27 28 26 23 22 21 21 17 14 11 14 13 11

GFSMW_700_spd_027.txt.gz
Wind_Speed
22 21 20 19 15 15 18 19 19 21 23 17 17 20 21 25 26 27 29 30 32 35 38 42 45 49 51 53 56 57 55 52 52 55 55 53 51 49 49 48 47 48 48
27 27 23 19 20 21 19 21 21 17 16 17 20 22 24 23 24 26 28 31 35 39 42 45 47 51 52 51 51 52 54 54 55 57 57 60 57 53 51 50 48 49 50
24 24 20 19 18 19 18 14 13 13 14 16 19 21 23 24 26 29 29 33 37 40 42 44 46 49 51 52 53 53 53 53 52 53 54 55 57 60 54 51 52 53 53
18 11 12 8 9 9 10 12 14 17 20 18 17 18 21 26 29 33 38 41 43 44 45 47 50 51 51 51 51 53 54 55 56 54 50 51 53 56 63 58 51 48 49
9 8 7 8 6 8 14 13 16 21 24 27 31 33 36 37 39 40 42 44 46 46 47 51 51 51 52 54 54 53 52 51 51 50 51 52 52 50 50 56 53 47 35
10 8 7 9 10 14 16 19 23 27 31 36 39 41 43 41 40 42 45 46 46 48 50 50 50 48 46 48 50 45 43 43 45 47 47 48 48 47 46 47 45 40 33
8 12 15 24 21 27 27 25 28 30 33 39 42 42 41 41 43 44 46 46 46 46 45 46 47 47 49 47 44 43 44 45 44 45 45 43 40 38 35 33 37 34 25
11 19 30 25 24 28 25 26 29 33 35 42 48 44 43 45 45 45 45 46 45 44 42 43 46 49 45 44 40 39 36 38 40 43 43 42 37 31 29 29 32 35 30
27 24 23 23 26 23 24 29 34 39 42 46 48 44 45 44 43 44 45 45 46 46 49 49 42 44 46 49 41 37 35 38 41 44 42 37 34 32 31 32 35 37 40
19 21 23 24 24 28 29 31 36 41 44 46 43 42 41 42 43 43 45 49 50 49 52 49 46 46 51 47 28 33 34 36 37 39 38 36 34 33 32 34 36 37 38
18 21 24 27 31 29 29 35 42 44 43 41 40 39 41 43 44 46 48 52 54 53 56 54 46 45 45 26 27 33 37 37 36 34 34 35 36 36 37 37 37 38 38
21 24 27 28 30 29 35 39 41 41 40 40 39 41 43 45 46 49 51 52 57 60 49 42 41 43 44 33 30 32 35 38 34 32 34 36 38 40 41 41 41 41 39
28 28 27 27 29 33 39 41 39 39 38 39 43 44 45 47 47 50 54 59 56 49 48 47 46 43 38 28 33 33 36 35 32 34 37 41 43 44 42 41 41 42 42
25 27 28 31 34 38 38 37 38 38 41 43 44 44 46 46 52 56 55 49 46 44 43 40 38 32 33 32 34 36 37 34 34 37 41 44 45 45 45 43 42 40 40
26 28 31 36 38 38 37 37 39 42 43 43 44 46 49 51 51 49 48 43 41 39 35 30 20 22 26 30 33 36 33 34 37 41 44 44 45 45 45 43 41 39 38
29 34 34 37 38 39 37 38 41 42 42 43 45 47 48 46 46 45 42 39 37 33 26 17 22 25 25 30 29 31 33 37 41 44 44 44 42 39 36 34 34 34 34
31 34 40 39 38 36 37 39 41 41 43 46 47 46 46 45 45 42 39 37 33 27 22 25 26 24 27 29 32 33 36 39 42 43 43 41 37 35 34 32 30 28 28
36 41 39 36 34 35 38 39 40 43 45 47 46 47 46 45 42 38 37 35 31 27 26 24 24 26 28 30 32 34 36 38 41 41 36 33 33 33 32 30 27 24 22
35 35 35 31 33 35 37 39 42 43 44 44 45 44 44 41 38 35 35 34 29 24 21 21 24 26 28 30 33 35 36 38 40 35 29 30 30 30 28 26 25 22 19
35 32 29 31 34 36 38 40 42 42 42 42 41 41 41 38 36 34 33 29 24 21 21 23 25 26 28 30 33 35 37 39 39 30 26 27 28 27 25 25 23 22 18
30 28 29 33 35 37 39 40 39 40 39 37 38 38 38 36 35 33 30 25 23 21 22 23 24 26 28 29 33 35 37 38 37 31 26 25 26 25 24 22 21 19 17
25 27 31 33 36 38 39 38 38 38 37 36 37 38 37 36 34 30 26 24 22 22 22 23 24 25 27 30 32 34 35 36 36 30 26 25 25 26 24 22 20 17 15
24 30 32 34 36 37 38 37 37 38 37 38 39 38 36 34 32 28 25 24 22 21 22 22 22 24 27 30 31 32 31 31 32 29 26 24 25 26 23 19 18 16 12
28 31 32 34 36 36 36 35 36 36 37 37 36 35 34 33 29 26 24 22 21 21 21 21 22 23 26 28 29 29 29 28 29 28 25 23 23 24 22 17 15 15 12
30 32 33 35 36 36 34 35 35 37 38 36 34 34 33 30 26 24 23 22 21 20 20 21 21 23 25 27 28 29 28 27 27 28 26 23 21 19 18 15 16 17 13
32 33 33 35 36 35 34 34 35 37 38 37 35 32 30 27 25 23 22 22 21 20 20 20 21 22 24 26 27 27 27 26 26 27 27 24 20 17 16 16 15 16 14

GFSMW_700_spd_030.txt.gz
Wind_Speed
17 18 18 17 17 17 18 20 22 20 19 20 18 14 15 19 23 27 28 30 31 34 37 41 44 48 50 52 52 52 53 56 58 60 59 56 54 54 50 48 48 50 50
22 23 22 20 21 16 13 13 16 16 13 11 15 20 23 24 24 25 28 32 36 39 41 44 46 48 49 51 53 56 56 56 57 59 59 60 59 56 52 50 49 50 51
25 22 18 12 14 16 14 11 9 11 14 17 19 19 21 22 26 28 30 33 36 39 42 46 49 51 52 53 54 54 55 55 53 53 51 52 54 57 54 47 45 48 49
12 9 6 8 9 4 4 8 10 11 12 15 20 27 30 33 36 36 36 38 41 44 46 47 49 50 51 52 53 55 56 56 54 51 45 45 48 50 55 53 55 49 42
8 6 5 8 5 1 8 12 15 20 23 26 28 35 35 39 41 38 40 42 44 45 46 48 50 52 54 55 54 54 52 49 46 44 45 45 45 43 48 51 52 48 45
9 15 11 5 6 17 22 23 22 23 26 28 32 35 39 43 39 39 41 42 44 45 47 49 50 49 49 50 48 48 47 44 44 46 45 42 43 43 44 45 46 43 40
12 11 12 17 28 19 16 20 23 26 27 32 36 39 42 40 38 40 42 43 45 47 48 48 49 49 51 50 52 46 45 46 45 42 36 37 38 39 39 40 40 40 38
10 16 26 29 26 19 22 25 28 29 31 35 40 42 41 40 41 43 46 48 49 49 50 51 53 53 55 52 45 43 45 37 33 34 34 35 39 38 35 36 37 39 38
19 26 24 20 23 26 27 28 30 29 32 38 42 40 41 43 44 47 48 48 49 52 54 55 55 54 38 37 41 43 26 27 30 34 35 37 38 36 33 33 33 36 42
19 21 21 22 24 27 29 33 34 30 35 42 41 40 41 42 44 45 48 50 52 54 54 56 50 45 41 44 42 37 34 29 33 35 36 39 38 37 35 35 36 38 40
19 20 22 25 26 29 33 31 31 32 38 38 38 39 40 42 44 47 48 50 53 56 53 49 47 45 42 41 38 38 32 29 32 36 40 38 38 38 37 38 40 42 42
23 24 25 27 28 32 29 33 37 40 34 37 37 39 41 44 45 48 52 55 55 51 49 44 41 39 37 34 31 34 28 33 35 39 39 37 37 40 41 43 43 42 41
24 25 26 26 28 31 36 39 36 33 34 36 38 41 43 45 49 51 52 51 50 48 43 38 37 34 29 22 27 32 31 36 38 37 36 38 40 43 44 44 44 42 41
26 25 26 28 33 37 37 35 34 34 36 39 42 44 47 49 50 50 50 48 46 43 37 34 30 28 18 26 25 29 31 33 33 34 37 40 43 44 44 43 41 38 36
26 27 28 30 35 35 35 34 36 37 39 42 44 46 49 49 49 49 48 45 41 37 35 30 26 20 26 29 26 27 27 30 33 36 38 42 44 42 39 36 35 36 35
27 27 29 34 35 33 34 35 36 38 40 43 46 48 48 48 49 48 46 41 38 35 32 29 26 27 25 25 26 28 30 32 36 37 39 42 40 34 33 33 33 32 32
26 28 32 36 34 34 34 34 36 39 42 45 46 46 47 47 47 45 42 40 35 34 32 29 25 24 24 25 27 28 30 33 35 38 40 41 34 32 34 33 31 29 27
27 30 34 35 35 32 32 35 38 40 43 44 44 45 46 44 42 41 39 37 33 31 29 25 22 22 24 26 27 29 31 33 36 37 39 37 31 31 31 31 30 27 24
29 35 35 33 30 31 32 36 38 41 42 43 44 44 43 41 40 39 37 35 32 29 26 24 23 23 25 26 27 30 33 35 35 36 38 35 30 29 29 29 28 27 23
35 38 35 28 30 31 34 36 39 41 42 42 42 41 40 41 40 38 36 34 30 27 26 24 24 24 25 25 27 31 34 35 35 34 35 32 29 28 28 28 28 25 21
33 30 29 28 29 33 35 38 40 41 40 39 39 39 40 39 37 36 35 32 29 26 25 23 22 23 24 24 28 31 34 35 35 34 34 30 27 26 26 26 24 23 22
27 26 24 27 31 35 38 39 40 39 38 38 38 39 39 38 36 36 35 30 26 25 23 22 22 23 23 24 27 30 33 34 34 32 32 31 27 24 24 23 21 20 19
21 22 24 29 33 36 38 38 39 38 38 37 38 39 39 37 36 35 33 28 26 24 22 21 21 22 22 24 27 29 31 32 31 31 30 30 27 23 22 22 20 19 19
19 22 27 32 34 36 37 38 38 38 38 38 38 39 38 37 34 33 29 26 25 24 22 21 21 21 21 23 26 28 30 29 29 27 27 29 27 23 21 19 18 20 19
19 25 30 33 35 36 37 38 38 38 38 39 39 38 38 36 33 30 28 25 24 23 21 20 20 21 21 22 24 27 28 28 27 26 25 26 25 21 19 20 18 17 18
24 29 32 35 35 36 37 38 39 38 38 38 38 37 36 34 32 28 27 25 23 22 20 19 19 20 20 20 23 25 26 27 27 26 24 25 25 22 19 17 17 16 16

GFSMW_700_spd_033.txt.gz
Wind_Speed
14 16 17 18 19 19 22 27 17 20 14 6 6 10 11 15 17 19 20 24 29 33 36 39 41 44 47 48 49 50 52 53 54 57 57 57 57 56 54 53 52 51 50
18 19 19 20 21 22 24 9 10 8 7 10 11 10 11 14 18 22 26 29 31 32 34 37 40 43 47 50 50 51 53 54 55 56 57 56 54 53 49 48 48 49 48
21 22 17 11 10 13 15 7 7 12 12 10 9 13 18 22 26 30 33 31 31 33 37 41 43 45 46 47 49 51 52 53 52 51 50 50 51 51 48 42 37 36 36
17 10 9 8 10 9 6 4 5 10 16 16 16 20 24 28 32 35 36 34 36 39 41 43 44 46 48 49 50 49 48 47 47 44 41 40 43 46 48 44 45 43 39
10 9 8 8 7 7 2 12 22 27 21 22 23 25 29 32 36 38 36 36 39 40 43 44 46 47 48 48 48 49 50 47 44 44 41 41 41 41 42 45 43 42 43
10 11 5 6 5 8 15 27 18 14 18 23 25 28 32 36 38 37 37 38 40 42 44 46 47 47 48 51 51 50 44 39 44 43 42 41 37 37 39 41 41 40 42
15 11 6 7 13 21 15 17 17 18 23 26 27 30 34 37 37 38 39 41 45 46 47 47 49 51 52 51 49 47 38 40 43 38 35 31 34 37 38 40 41 41 40
15 8 11 14 13 12 15 19 20 24 26 30 28 32 36 37 37 40 43 45 47 47 48 50 51 52 51 48 45 41 37 40 34 30 34 36 36 34 37 40 40 42 41
12 13 13 15 15 19 19 21 23 26 30 29 31 35 38 38 39 42 44 46 47 49 50 50 50 49 47 42 39 37 33 32 31 35 31 30 32 35 40 39 38 40 45
13 14 17 18 20 22 23 24 25 27 33 34 38 37 36 38 41 43 44 46 48 49 49 49 48 45 40 37 37 33 32 30 31 31 30 33 36 40 39 38 38 40 44
16 18 21 23 24 25 25 27 28 33 37 39 35 35 38 40 42 43 45 46 48 49 49 49 45 40 35 32 33 29 27 25 28 30 34 36 39 38 37 39 41 43 44
20 23 25 25 25 28 30 30 37 40 38 32 36 37 38 40 42 43 45 47 49 49 49 46 40 36 33 29 27 22 28 28 28 33 35 36 36 37 39 41 43 44 43
24 26 26 26 26 28 29 34 38 37 31 32 34 37 39 40 43 45 46 47 48 47 44 40 36 33 30 27 21 25 27 26 29 31 32 34 36 37 40 42 43 40 37
25 25 26 25 26 30 32 35 36 32 32 33 36 38 40 43 44 46 46 46 46 44 40 36 32 29 26 24 23 26 24 26 27 29 32 34 36 39 41 40 35 34 36
25 26 26 27 28 30 35 34 32 33 33 34 37 39 42 44 45 45 45 44 44 41 37 33 31 30 27 25 23 24 25 26 28 30 32 34 36 38 37 33 32 34 34
26 27 27 26 30 32 34 33 32 32 33 35 38 41 42 43 44 44 43 43 42 39 35 32 30 28 24 22 22 24 24 26 30 33 34 34 35 36 31 29 30 32 31
24 26 25 29 29 33 30 31 31 32 34 36 39 41 42 42 43 43 43 42 40 36 34 31 28 24 22 22 23 23 24 27 31 33 34 33 34 35 32 29 30 30 28
24 24 26 29 31 33 33 30 31 33 35 37 39 41 42 42 42 41 41 39 38 35 33 29 26 24 22 23 23 22 24 28 31 33 33 33 34 34 31 30 30 30 28
21 24 30 29 32 33 29 29 30 34 36 38 40 41 42 41 40 39 38 37 36 34 31 27 25 23 23 23 23 22 25 28 30 32 32 33 33 33 30 29 30 29 24
22 26 29 31 30 28 27 28 32 35 37 39 40 41 41 40 39 38 38 36 35 32 28 26 25 23 21 22 22 23 25 28 30 31 31 31 32 31 28 27 28 25 23
25 28 31 26 25 23 25 29 33 36 38 39 40 39 39 39 38 38 37 35 34 30 26 25 24 21 20 20 21 23 26 29 30 31 30 29 30 28 26 24 23 22 22
29 34 25 22 19 22 27 32 35 37 37 39 39 38 37 38 38 37 36 33 32 27 25 24 23 21 20 20 20 22 25 28 30 29 29 28 27 27 24 21 20 21 21
35 26 21 15 18 25 30 36 36 37 38 38 38 37 37 37 36 35 34 32 29 26 25 24 22 21 19 19 19 20 24 26 28 28 28 27 26 25 23 20 20 19 20
28 20 12 15 23 28 34 35 35 37 37 37 37 37 36 36 34 33 32 30 27 24 24 23 22 20 19 18 18 19 21 24 26 26 26 25 25 25 24 21 20 19 17
19 10 13 19 25 30 32 33 35 36 35 36 35 34 34 34 32 32 30 28 25 23 23 22 21 20 18 17 17 18 20 22 24 25 25 23 23 23 22 21 19 18 17
7 11 16 22 27 29 30 32 34 34 35 33 32 33 33 33 32 30 28 25 23 22 22 21 20 19 18 17 16 16 18 20 22 23 23 23 21 21 20 20 19 17 16

GFSMW_700_spd_036.txt.gz
Wind_Speed
14 17 19 19 19 21 22 23 26 24 25 14 9 2 3 6 8 12 16 20 25 27 29 32 34 36 39 41 42 43 46 47 50 49 51 51 53 51 52 51 50 52 53
17 16 17 18 21 23 25 24 15 9 5 5 7 4 7 8 10 14 19 24 28 28 30 32 35 38 40 43 44 45 46 47 52 52 49 48 44 31 39 48 46 47 46
21 19 19 20 21 20 17 15 6 2 3 10 15 12 10 13 16 20 25 28 30 33 34 36 37 40 41 43 45 46 47 47 45 49 47 43 38 42 40 35 35 36 33
20 19 17 14 12 12 12 3 2 12 17 16 13 12 16 20 23 27 31 33 34 36 37 38 40 42 42 43 44 46 45 46 45 43 41 41 41 37 35 27 26 28 26
19 15 13 12 10 11 10 8 11 21 16 13 15 19 21 24 27 31 34 34 36 37 38 39 41 43 44 45 47 47 47 45 43 37 34 36 33 27 25 29 25 27 28
15 13 14 12 9 7 11 16 19 15 15 17 21 23 27 27 31 34 36 37 38 38 41 43 44 46 46 48 43 41 41 33 27 29 37 36 29 26 26 34 36 34 33
15 15 13 6 6 11 13 9 11 16 19 21 24 29 29 32 34 38 36 37 38 41 43 45 46 46 46 47 42 27 28 27 29 32 32 34 33 37 34 30 30 34 37
17 15 10 9 11 12 11 13 16 18 22 25 28 29 32 34 37 35 37 39 41 43 44 45 46 46 47 46 44 27 27 29 29 29 31 33 37 33 33 35 37 44 42
18 15 13 13 12 14 16 18 21 24 26 30 32 29 33 37 35 35 38 40 42 44 45 46 46 47 46 44 38 25 30 31 32 29 23 31 33 34 38 39 37 36 42
20 18 16 16 16 18 20 23 25 28 33 31 35 38 37 34 34 37 39 41 42 43 45 45 45 44 42 38 33 27 25 27 28 26 29 29 30 35 39 34 34 32 35
21 21 19 18 21 23 25 26 28 30 33 36 41 39 33 33 35 37 39 41 42 43 44 44 44 43 39 34 31 29 26 31 27 30 29 30 33 36 35 33 33 32 32
23 24 23 23 25 27 28 29 32 37 36 36 40 32 31 33 35 37 39 41 43 44 44 44 43 40 35 31 30 28 27 25 30 27 29 31 32 34 35 35 35 38 41
23 26 26 28 30 31 30 34 38 35 36 37 30 30 33 34 36 38 40 42 43 43 43 43 41 38 33 30 28 26 23 28 26 27 29 30 32 33 35 37 40 42 40
27 29 31 32 33 33 35 37 34 34 34 29 31 32 34 35 38 40 41 42 42 42 42 41 39 35 31 29 26 25 24 24 25 26 28 30 32 34 36 37 38 38 34
25 28 31 32 33 34 35 34 33 32 31 30 30 32 35 37 40 41 41 41 40 41 41 40 37 33 30 27 23 21 22 24 25 26 29 32 33 34 34 35 35 32 31
24 26 30 31 33 33 35 33 31 32 31 30 30 33 36 38 39 39 40 40 40 40 39 38 36 32 29 26 23 21 23 23 25 27 29 32 34 33 32 32 32 30 30
20 24 28 30 31 34 34 31 32 28 28 28 31 34 36 38 38 39 39 40 39 39 38 36 34 30 29 25 23 22 22 22 24 27 30 31 32 32 31 32 30 27 28
21 24 26 28 31 34 33 33 30 26 26 29 32 35 37 38 38 39 39 39 38 37 36 34 32 29 27 24 22 22 21 22 24 28 30 31 30 30 31 31 28 26 27
21 23 25 28 32 35 32 33 26 23 27 30 34 36 37 38 39 39 39 37 36 36 34 32 29 26 26 23 22 21 21 21 24 27 29 29 29 29 29 29 26 25 23
20 22 25 30 34 35 36 28 18 23 27 33 35 35 37 39 39 39 37 36 35 35 33 30 27 25 24 22 21 20 20 21 24 26 27 29 28 28 28 27 24 23 22
19 19 26 33 38 39 28 16 19 24 30 34 33 35 38 39 38 37 36 35 34 33 31 29 26 25 23 21 19 19 20 21 23 25 26 27 27 26 26 25 22 22 22
25 26 28 35 40 27 17 16 22 27 31 32 34 37 38 38 37 35 34 33 32 31 30 27 25 24 22 20 19 18 19 20 23 23 25 25 25 24 24 23 21 20 20
35 36 33 34 37 22 14 20 23 28 29 31 34 37 38 36 33 32 32 31 31 30 28 26 24 22 21 20 18 18 18 19 21 22 24 24 23 23 22 23 21 19 19
36 34 38 29 25 15 18 20 25 27 29 31 34 36 34 33 32 33 32 31 30 29 26 24 22 22 20 19 18 18 17 18 19 20 21 22 22 21 22 22 22 20 19
39 35 28 13 12 16 17 21 24 26 28 31 33 33 32 32 31 31 30 29 28 27 24 22 22 22 20 20 18 17 17 17 17 18 19 20 21 21 21 21 21 20 19
35 27 13 11 12 16 19 22 24 26 29 31 31 32 31 31 31 30 29 29 26 25 22 21 22 21 21 20 18 18 17 16 16 16 17 17 19 20 20 19 20 20 19

GFSMW_700_spd_042.txt.gz
Wind_Speed
25 25 21 21 20 17 10 14 16 18 21 22 18 9 9 13 8 10 11 16 18 20 23 27 28 28 32 36 39 40 41 41 42 43 44 43 43 41 36 40 43 46 47
21 24 19 24 25 24 19 19 21 21 23 15 9 9 11 9 8 11 14 18 21 23 27 26 30 33 34 35 38 39 40 41 41 42 45 47 44 42 39 37 40 42 47
25 25 22 25 28 30 21 22 23 22 17 13 11 12 12 12 12 12 16 20 21 25 27 30 30 32 35 36 36 38 41 43 42 40 43 47 47 45 41 41 38 40 45
27 31 30 29 30 29 26 25 25 18 16 15 15 13 13 15 18 19 21 20 22 25 30 31 33 34 34 35 37 38 40 41 41 41 39 39 37 43 46 38 34 30 33
30 28 28 28 28 26 27 24 18 16 14 17 16 12 15 16 18 19 25 30 28 35 32 35 37 38 39 40 41 41 41 41 42 41 40 37 36 38 38 41 41 38 32
27 26 25 26 25 22 20 18 15 16 15 16 16 15 18 22 22 26 30 25 31 30 31 35 37 37 39 40 39 39 38 38 39 38 33 35 38 39 41 42 43 40 36
27 26 29 31 22 19 19 16 15 20 17 16 18 19 22 23 27 28 32 37 34 31 33 35 35 36 38 40 40 40 40 39 39 29 30 35 38 39 37 38 38 40 39
25 26 25 22 20 18 17 16 19 22 20 21 21 24 26 27 28 30 34 32 32 31 34 35 36 38 40 40 39 39 39 38 35 27 31 33 38 37 38 37 36 40 43
19 21 22 23 21 20 19 18 22 24 23 24 26 28 28 31 33 36 37 28 30 32 34 36 37 38 39 40 41 40 39 37 34 32 32 37 39 39 39 39 38 35 41
18 20 22 24 23 22 24 22 25 27 26 27 29 31 34 36 36 41 36 30 32 31 34 37 39 39 40 42 41 40 38 36 34 32 32 35 36 36 35 37 35 27 32
18 19 23 25 26 26 28 25 26 30 32 32 32 35 38 39 43 42 32 31 30 33 36 39 40 40 41 41 40 40 37 35 33 31 32 31 31 32 33 34 31 34 37
18 21 22 26 27 29 32 30 28 33 34 34 36 38 43 40 44 39 32 31 31 35 37 39 41 42 43 40 38 38 36 34 30 29 29 30 31 31 29 29 32 34 36
20 22 25 28 28 31 34 34 33 35 38 37 36 39 42 42 47 33 32 31 33 36 38 39 40 41 41 41 39 36 35 32 29 29 31 30 28 28 29 31 34 36 39
19 22 27 27 30 35 35 35 37 36 39 36 36 39 47 40 42 30 30 30 33 36 37 39 40 40 40 40 37 33 32 31 30 29 31 29 29 29 30 32 35 37 38
20 20 27 29 34 40 36 37 39 40 37 36 36 41 42 44 32 29 28 29 32 35 37 39 43 43 40 39 32 31 31 31 30 28 29 28 29 30 31 33 35 35 35
21 28 29 34 38 34 34 38 41 41 38 35 39 43 44 34 28 26 27 30 32 36 38 39 40 37 36 36 31 30 30 29 28 28 27 26 27 30 33 35 35 35 35
20 22 28 27 27 30 36 38 40 43 38 38 43 45 39 34 24 27 31 28 33 36 38 38 39 34 33 33 31 30 29 28 27 27 26 25 26 29 31 32 32 32 31
18 19 23 23 25 30 36 39 41 41 41 41 43 45 34 29 28 26 25 30 35 38 37 36 37 34 32 33 32 30 28 28 27 26 25 25 26 28 30 31 30 29 29
18 20 23 24 27 31 36 37 40 40 42 44 39 33 28 32 23 22 26 32 36 37 36 34 32 32 33 33 32 30 27 28 26 24 24 24 25 26 29 29 29 27 27
27 26 22 23 26 30 33 35 37 42 44 42 33 28 22 17 20 24 28 32 35 35 35 34 31 31 31 33 31 27 26 27 25 22 22 23 23 25 27 28 28 27 26
20 22 20 26 31 34 37 40 44 45 48 46 28 18 17 18 22 25 30 33 32 33 33 33 31 29 30 31 28 25 26 26 24 22 21 23 22 23 25 26 26 26 26
24 27 33 35 37 39 42 45 46 42 40 37 26 19 18 21 25 29 31 33 34 32 32 33 31 30 30 28 25 22 23 25 23 21 20 21 21 22 23 24 25 25 24
31 34 37 37 36 39 41 43 39 37 28 24 23 19 21 24 28 30 32 33 34 33 30 32 32 31 28 26 26 24 23 23 22 22 20 20 20 20 20 22 23 22 21
36 34 33 30 31 38 40 35 34 30 25 25 28 24 24 28 29 31 32 34 34 35 34 33 33 30 26 24 25 25 24 23 21 21 21 20 20 19 18 19 20 22 23
29 30 33 34 34 29 23 21 22 27 27 21 21 25 27 29 31 32 34 35 35 36 36 32 32 29 27 25 24 23 24 25 24 22 21 20 20 19 18 18 19 20 21
27 30 25 19 18 21 25 22 19 19 22 24 27 29 31 33 33 34 35 34 36 36 35 31 28 27 27 26 25 24 23 24 25 24 22 21 20 19 19 18 18 18 19

GFSMW_700_spd_045.txt.gz
Wind_Speed
8 8 11 9 6 3 5 6 8 10 13 17 19 16 11 10 12 12 12 14 16 20 23 24 25 27 30 32 34 37 38 36 35 36 37 38 37 37 36 36 37 39 43
16 16 19 18 13 11 12 12 12 14 19 21 18 12 11 13 12 9 12 13 17 21 23 24 25 28 29 31 34 36 36 36 36 38 38 40 38 36 37 38 38 40 41
23 23 25 27 24 22 19 16 17 20 23 23 15 14 14 15 12 13 15 16 19 22 20 21 27 29 28 31 32 33 35 38 37 37 39 43 44 45 42 40 37 34 38
23 23 20 22 23 26 27 20 23 24 26 19 15 16 16 16 16 18 18 20 20 24 23 29 28 27 29 31 32 34 35 38 40 39 39 40 44 48 51 48 42 39 36
26 26 25 27 29 30 31 26 27 28 25 17 14 17 19 20 20 20 21 22 24 25 28 34 31 31 32 33 35 36 37 37 39 40 42 41 42 41 42 46 43 42 40
26 26 28 31 33 31 28 30 31 26 20 17 16 18 20 21 22 24 24 26 29 35 38 39 34 34 35 36 37 37 38 38 39 39 40 40 42 38 38 39 42 43 41
23 31 33 32 32 29 24 26 25 24 20 17 16 18 21 22 24 25 25 28 33 37 37 29 30 32 33 34 36 38 39 39 40 40 39 37 36 37 39 37 39 42 44
34 34 37 39 34 31 27 25 25 23 17 16 19 21 22 24 25 29 31 38 37 35 38 26 29 32 33 34 36 36 38 38 39 39 37 36 37 38 42 41 42 43 43
27 33 36 36 30 27 21 20 20 23 21 21 20 23 24 24 27 35 32 40 34 45 36 28 30 31 31 35 36 37 38 39 40 38 36 34 35 37 37 35 35 41 43
20 26 28 26 24 20 16 19 24 27 26 26 26 26 26 29 30 42 36 42 37 44 38 28 29 31 33 35 37 39 38 38 37 36 34 33 34 36 35 38 40 39 38
12 15 18 21 21 21 20 23 28 32 33 32 30 31 31 34 34 36 44 45 44 28 27 28 30 33 35 35 36 38 39 38 35 33 32 31 31 31 31 30 31 31 32
14 14 16 19 22 24 24 24 29 31 32 34 36 37 36 37 39 39 48 49 35 25 27 28 31 34 36 37 39 39 38 37 34 32 31 29 30 29 29 28 29 29 31
18 20 21 24 26 28 28 25 26 28 32 36 40 38 39 42 46 47 41 47 35 27 27 30 32 35 37 38 39 39 37 35 33 32 32 31 32 30 29 27 27 29 32
17 20 23 26 29 31 28 26 29 33 36 41 38 37 41 43 43 39 51 34 28 27 30 32 32 35 39 40 37 34 35 33 31 31 31 31 32 30 28 26 28 31 33
14 17 22 25 29 30 32 33 35 38 41 40 38 40 42 43 45 48 35 32 24 29 29 28 30 36 39 38 33 32 32 33 31 30 30 31 30 29 26 26 29 32 34
12 16 21 25 28 29 34 34 36 39 39 37 40 43 43 44 43 38 32 23 29 27 26 29 33 36 36 34 32 30 31 31 31 30 30 31 28 25 24 26 30 33 35
18 21 20 23 28 34 34 34 31 35 39 42 44 47 45 51 43 41 31 29 24 25 25 28 33 34 32 32 30 29 30 30 29 29 31 29 27 22 22 26 28 29 30
15 17 19 24 26 30 31 33 35 38 41 44 48 46 48 48 46 43 26 23 22 23 27 33 35 32 32 31 31 30 30 30 28 30 30 28 25 21 22 25 26 27 28
17 16 19 24 23 26 28 32 34 38 42 45 49 51 51 48 41 31 26 21 20 25 30 33 33 31 31 31 31 30 30 29 29 30 28 26 24 21 22 23 24 25 25
23 28 29 28 27 27 30 32 35 39 44 49 51 55 54 33 34 28 21 23 24 28 31 32 32 31 30 31 31 31 30 29 28 27 26 24 22 21 21 22 23 24 24
29 31 33 31 30 29 32 35 38 43 47 51 51 44 36 34 22 27 22 23 28 30 30 30 31 31 30 30 32 30 29 27 26 25 23 23 21 20 20 20 21 23 23
28 27 28 29 29 30 33 36 40 43 47 45 37 32 22 28 22 20 24 28 29 31 32 32 30 32 32 32 32 31 28 25 25 24 23 21 22 21 20 20 20 21 22
26 26 24 23 26 28 31 36 36 29 23 19 21 20 19 18 21 26 28 30 32 33 34 35 33 32 34 33 32 30 28 26 25 23 23 21 21 22 19 19 19 18 19
24 23 24 21 23 28 27 24 19 17 17 18 18 18 20 22 26 28 30 32 34 35 35 36 36 35 35 34 33 29 27 26 25 23 22 22 22 22 20 19 17 17 18
23 23 23 24 24 19 16 16 14 15 17 19 21 23 26 28 29 31 33 34 35 36 37 36 37 35 34 33 32 30 28 26 25 25 23 20 21 22 20 18 18 16 16
22 21 20 17 17 18 16 15 18 19 21 23 25 27 30 32 34 36 36 35 36 36 35 35 36 35 34 33 32 31 28 26 26 25 23 22 22 21 20 18 17 16 15

GFSMW_700_spd_048.txt.gz
Wind_Speed
11 8 6 7 12 14 11 9 8 7 8 9 11 13 16 14 14 15 18 18 16 17 17 20 24 28 29 29 32 33 34 37 37 36 35 35 34 33 33 35 35 36 38
15 15 13 11 8 9 11 11 9 10 11 13 16 17 16 15 16 16 17 16 16 18 21 25 30 27 25 29 29 32 36 36 35 37 37 36 34 32 33 35 36 36 38
12 16 17 13 13 12 13 14 14 15 16 18 20 19 16 15 15 17 15 17 19 21 25 25 28 25 27 27 29 33 35 34 33 35 37 40 40 40 37 38 40 39 39
18 18 18 16 13 14 16 17 20 19 19 23 20 19 16 18 19 17 17 19 21 22 24 25 25 29 36 33 31 33 34 35 35 36 36 38 41 44 48 45 45 44 40
23 23 22 21 21 21 20 20 21 26 24 25 22 19 17 19 19 18 18 19 21 28 29 30 29 31 35 33 34 34 34 36 35 36 38 39 39 41 45 48 46 44 42
27 28 26 26 25 26 25 21 26 28 28 28 23 19 20 19 18 18 20 24 30 32 33 35 37 44 38 38 36 36 38 38 37 38 39 40 42 43 43 45 46 46 42
30 34 31 29 29 28 26 30 27 23 27 27 21 20 20 18 18 22 25 29 32 36 29 38 37 37 36 32 34 37 39 40 39 39 40 41 41 43 43 42 42 45 43
27 24 26 25 26 28 30 26 24 26 24 22 20 21 20 19 22 25 28 34 32 39 32 46 42 45 35 32 35 38 40 40 39 40 40 40 39 41 40 40 40 42 41
35 30 25 26 28 30 26 26 30 30 25 25 25 22 21 23 28 32 35 33 38 33 43 49 47 44 30 32 35 38 39 37 38 39 40 39 37 38 37 36 36 36 39
23 23 26 29 31 24 27 31 30 25 26 25 27 26 28 30 33 32 33 37 37 47 47 49 49 39 31 32 35 37 38 37 38 38 38 37 36 34 33 32 32 33 34
18 20 20 24 28 29 27 25 24 24 23 26 32 32 33 36 37 38 40 34 39 46 54 42 48 31 34 34 34 35 38 39 37 36 35 35 34 33 31 30 30 31 33
8 7 9 10 12 14 16 17 20 21 23 27 31 34 32 37 38 47 46 41 45 55 47 42 38 32 34 32 32 34 38 37 36 35 35 34 33 31 29 29 29 30 30
9 13 17 18 18 19 17 18 23 26 27 28 29 26 33 40 40 42 42 46 57 50 56 48 34 33 35 32 32 35 38 39 37 36 35 34 33 32 31 31 29 27 28
15 17 20 22 21 21 22 25 29 30 27 30 29 30 36 33 39 42 50 53 51 56 46 36 34 37 34 29 31 35 37 36 37 35 34 33 33 32 32 30 28 29 30
14 17 19 21 24 25 27 28 31 31 28 27 32 35 37 40 42 45 50 49 54 47 39 35 39 38 30 27 33 36 36 36 35 35 34 34 34 31 30 29 28 29 30
16 17 20 23 24 25 27 28 31 29 28 30 32 36 39 43 48 50 52 54 50 45 41 39 32 23 26 30 35 37 35 34 34 33 34 33 33 30 28 27 28 28 30
16 16 19 20 20 18 22 26 28 31 34 36 37 39 43 46 49 53 58 60 48 39 39 24 24 25 29 32 33 34 34 34 33 33 33 32 30 29 27 26 26 26 28
16 17 17 18 19 21 24 28 32 34 34 35 39 40 43 48 54 59 50 34 41 29 23 24 24 30 31 31 32 34 34 33 33 32 31 30 30 29 27 25 24 24 25
14 17 19 20 21 28 27 26 29 32 35 38 42 45 49 53 54 35 39 29 24 24 20 25 29 31 31 31 33 35 34 33 32 32 31 29 29 29 26 24 23 22 23
20 21 22 25 25 22 22 25 29 31 34 40 43 48 48 45 36 40 26 22 19 21 25 28 29 30 32 33 33 33 34 33 33 31 30 29 29 28 25 24 22 21 21
22 22 20 19 18 20 23 27 31 34 37 38 47 38 36 36 29 25 23 22 22 25 29 31 31 32 33 34 35 34 34 32 32 30 29 29 29 26 25 23 21 21 20
19 19 17 17 18 22 25 32 30 30 34 36 35 30 28 27 27 25 25 25 28 30 32 34 35 35 35 36 35 35 34 33 33 30 28 28 28 26 25 23 21 20 19
18 19 18 20 23 25 27 32 32 33 32 29 25 25 25 25 27 28 28 30 32 34 36 37 37 38 38 38 37 37 35 33 32 30 29 27 26 26 26 24 21 20 19
18 21 23 24 26 26 27 30 28 24 23 24 24 25 27 28 29 31 33 35 36 37 38 39 40 41 40 38 36 36 35 32 31 29 29 27 25 25 26 25 22 21 20
21 23 26 25 25 25 23 21 22 23 22 22 25 27 29 30 32 33 36 38 39 39 40 41 42 41 39 35 36 36 34 32 31 30 29 26 24 23 24 26 23 22 20
25 24 22 19 18 18 20 21 21 22 23 25 27 29 32 35 37 39 41 41 42 40 39 39 37 36 38 38 38 37 34 32 30 31 28 25 24 24 24 23 22 21 19

GFSMW_700_spd_051.txt.gz
Wind_Speed
7 9 8 10 13 12 11 9 9 7 6 4 4 6 8 11 12 15 17 18 20 21 21 21 21 23 27 30 34 33 35 36 35 37 38 38 38 37 35 35 36 36 37
7 10 12 12 14 12 10 9 8 8 8 8 10 11 12 14 16 16 15 18 19 20 21 22 23 27 31 33 36 35 37 37 37 38 40 41 38 37 35 36 37 37 38
2 3 5 5 8 10 8 9 9 10 12 13 15 14 14 17 16 16 17 19 18 20 21 22 24 29 30 31 31 38 42 39 37 41 40 43 42 42 38 37 39 41 41
10 7 5 3 3 1 5 10 11 14 17 20 20 19 17 18 15 19 21 18 18 19 22 26 28 27 29 32 37 40 36 36 42 41 39 40 43 46 47 44 42 41 40
17 14 12 8 9 10 11 11 14 17 17 22 24 22 22 17 19 19 20 19 20 23 25 26 32 33 27 32 37 38 37 41 39 39 42 42 43 43 44 47 47 45 38
22 20 18 18 16 17 16 18 19 19 20 20 21 26 24 19 18 19 18 21 24 26 31 34 38 42 32 38 43 43 42 40 40 41 43 45 45 43 43 44 43 43 45
28 25 25 24 22 20 22 20 22 22 22 19 22 24 20 19 18 19 22 27 31 33 35 36 38 41 42 47 51 48 48 42 41 43 44 44 43 42 42 41 42 43 44
26 26 25 25 20 23 24 28 24 24 21 23 25 18 18 20 21 22 26 29 33 38 38 40 47 42 43 45 48 45 45 38 40 45 44 43 41 40 39 39 40 42 43
23 19 19 21 19 22 23 27 26 25 25 29 26 22 22 26 25 26 28 32 36 36 37 37 37 40 47 52 47 45 37 39 44 45 41 42 42 40 39 37 37 39 41
21 20 21 22 19 17 19 24 25 26 29 30 26 25 29 28 29 29 35 35 38 41 42 42 40 51 54 50 54 41 39 43 43 42 43 41 40 39 37 36 36 37 38
17 19 19 19 17 14 19 23 27 28 29 25 22 22 24 26 32 33 31 37 39 47 37 44 43 50 50 58 51 40 42 47 47 45 38 39 39 38 36 35 34 34 35
2 6 3 5 6 9 12 15 19 17 18 20 19 20 27 23 25 29 33 40 42 44 43 46 46 47 53 58 47 45 48 46 39 34 37 39 38 37 36 35 34 33 34
7 7 8 10 11 13 15 16 17 18 22 22 23 26 29 28 24 30 33 34 40 42 48 47 52 54 58 51 45 42 39 33 35 36 38 38 37 35 35 35 34 34 32
12 14 16 17 18 20 22 24 24 26 26 27 28 28 26 28 32 32 33 39 43 48 54 46 57 55 42 44 39 31 31 33 36 39 40 38 37 35 35 35 34 33 32
18 18 18 19 21 24 25 27 28 27 30 31 31 26 27 31 32 33 37 44 46 47 53 56 43 40 40 30 29 31 33 37 38 38 38 38 37 36 35 34 33 32 31
21 21 20 21 22 26 26 26 27 29 30 31 30 31 32 32 35 37 44 47 49 54 45 32 39 39 29 28 27 33 35 37 38 38 38 36 36 36 34 32 32 31 30
19 18 18 20 21 21 21 21 21 25 26 29 31 29 31 34 37 43 50 54 46 39 37 43 33 28 25 27 31 34 36 37 38 37 37 36 35 34 33 31 31 30 28
16 16 15 16 17 18 18 18 22 23 25 27 28 30 32 36 44 44 49 48 39 42 38 28 28 26 27 30 33 35 36 38 38 38 37 35 34 32 32 30 29 27 25
15 15 16 18 17 19 23 23 20 22 25 28 31 34 38 36 42 49 44 39 40 31 30 28 28 28 29 32 35 37 38 39 39 38 37 35 33 31 30 29 28 25 24
15 17 19 20 21 21 19 19 21 24 28 32 34 39 39 45 41 35 42 37 32 31 32 32 31 32 34 35 37 38 39 40 39 38 36 34 33 31 30 29 28 25 24
18 19 19 21 22 22 22 23 25 27 30 38 37 33 33 38 41 37 31 33 32 34 35 37 36 36 38 39 39 40 41 41 40 38 34 33 33 30 28 29 27 25 24
20 21 22 23 23 22 23 25 26 28 29 31 37 39 37 35 32 32 33 33 36 38 39 40 40 40 41 42 42 42 43 42 42 38 34 32 31 30 28 28 26 25 25
21 22 24 21 23 25 28 29 29 32 34 34 36 31 31 32 33 33 35 37 39 41 43 44 44 44 44 44 43 43 44 41 39 37 33 31 30 29 27 27 27 27 25
23 24 21 23 27 29 31 33 31 31 31 28 29 31 31 31 33 36 39 42 43 45 47 47 48 47 47 46 44 43 40 38 37 36 33 31 30 29 27 26 26 28 26
23 23 23 25 27 30 30 27 25 24 26 28 28 30 33 35 37 39 42 44 46 48 50 50 50 50 50 46 42 40 39 36 37 38 34 30 29 27 27 26 26 27 27
25 26 27 28 26 23 22 23 24 25 26 28 30 33 36 38 41 45 47 47 49 49 50 51 52 53 50 45 40 41 42 35 36 36 35 30 27 27 27 27 26 25 25

GFSMW_700_spd_054.txt.gz
Wind_Speed
12 13 14 18 19 18 18 17 16 14 13 10 7 6 4 5 7 9 13 15 15 16 19 20 20 20 21 23 27 31 35 38 37 39 43 44 41 43 42 42 42 43 43
14 15 14 15 17 16 14 13 11 10 11 9 8 8 8 8 10 11 12 14 15 17 19 20 21 22 24 26 30 33 35 33 35 41 38 40 42 45 44 43 44 44 44
11 13 12 11 14 12 9 7 7 8 9 10 11 11 11 10 11 12 12 13 16 19 20 21 22 25 27 28 32 34 36 40 39 38 40 44 43 47 46 45 46 45 46
12 12 13 11 8 10 11 9 10 10 11 13 14 17 16 15 14 15 14 16 20 20 21 23 25 24 26 28 33 35 28 36 38 43 43 43 45 50 50 49 48 47 46
15 11 7 7 8 11 8 6 9 12 12 14 15 17 19 19 19 21 18 18 21 22 24 25 28 32 34 36 39 44 51 48 49 40 42 45 47 45 47 52 52 52 51
18 17 14 13 13 12 10 10 12 15 17 17 17 14 15 21 24 25 21 20 23 24 28 31 33 36 39 39 46 37 40 46 50 48 47 47 46 45 48 52 52 51 50
23 21 20 15 14 13 13 14 11 15 19 19 18 15 17 21 27 24 21 24 25 28 30 33 36 40 41 40 40 42 48 48 52 47 48 43 44 49 49 47 48 48 45
18 24 19 17 14 17 15 16 16 18 22 21 20 17 20 22 21 21 23 25 27 28 32 35 43 38 36 41 41 44 51 47 52 55 45 45 48 46 45 47 43 43 42
12 13 17 18 16 15 14 16 18 21 23 23 23 21 24 22 19 22 26 28 29 32 39 40 46 43 36 33 45 46 51 49 47 43 45 46 45 46 40 39 40 40 42
9 8 12 12 10 12 17 21 21 21 24 24 24 25 23 19 23 25 28 31 31 32 36 41 38 38 43 46 46 47 50 47 41 45 45 44 41 38 39 39 39 39 40
3 5 8 10 13 13 15 16 18 21 24 23 23 24 21 20 21 24 26 25 26 26 36 39 34 40 41 45 49 51 39 41 44 44 40 36 37 38 40 41 40 38 38
5 3 4 4 4 6 9 11 12 15 20 20 21 22 24 23 23 24 26 25 26 29 26 36 37 43 44 51 46 38 42 43 38 34 34 35 38 39 40 40 39 38 38
10 7 6 7 8 9 9 12 16 17 19 22 24 24 23 24 23 23 25 28 29 29 40 33 43 45 44 46 39 43 41 33 32 33 35 38 39 40 40 39 37 37 37
18 15 14 13 13 14 16 19 22 23 25 26 28 29 29 29 20 24 28 31 33 41 30 42 41 47 41 39 41 37 31 31 32 35 37 38 39 39 39 38 37 37 36
19 18 18 17 18 19 21 24 26 27 28 28 29 29 29 31 28 26 30 36 36 41 44 45 48 39 42 42 35 32 32 32 35 36 37 39 40 40 40 39 37 37 36
17 21 21 22 23 24 25 25 28 27 26 28 27 27 26 27 33 30 38 39 43 46 49 41 39 44 40 33 32 31 32 35 36 37 38 39 40 40 39 38 37 36 35
20 19 18 18 19 22 23 23 23 24 24 24 25 25 26 29 30 33 35 39 38 46 46 40 43 37 34 32 30 33 36 37 37 39 39 41 41 41 39 37 36 34 33
14 15 17 20 21 22 22 22 22 23 25 24 21 23 26 29 32 37 43 46 44 38 36 42 37 34 31 32 35 36 38 39 39 40 41 42 41 41 39 37 35 32 32
16 19 21 22 22 22 23 23 25 25 21 21 24 26 28 32 36 42 47 35 37 40 38 34 35 34 35 37 38 39 40 41 41 42 43 43 42 40 38 36 33 32 30
18 19 21 22 22 22 21 21 20 21 22 24 26 28 30 39 33 28 39 41 40 34 35 36 35 38 41 40 40 41 43 44 43 44 45 43 42 39 37 35 32 30 29
21 22 23 22 22 22 21 22 22 23 23 26 26 28 25 29 38 41 37 34 35 37 38 38 40 43 44 45 45 46 47 46 45 45 44 41 39 38 36 34 31 29 28
21 21 22 22 23 25 26 24 24 23 26 29 30 35 39 40 38 35 35 36 37 38 40 44 45 46 47 48 48 49 48 46 46 45 43 38 35 35 35 33 30 29 28
21 22 23 26 27 27 27 25 27 28 30 34 33 31 33 31 34 34 34 37 39 43 46 48 50 51 51 51 50 50 48 47 46 43 40 38 35 34 33 32 28 29 29
23 24 26 27 27 23 26 29 30 34 31 28 27 29 30 31 33 36 38 42 44 47 50 53 55 56 57 55 53 51 49 48 46 42 40 43 35 31 29 29 27 28 29
24 26 27 26 23 27 29 31 27 23 24 26 27 28 31 34 36 38 41 44 46 50 53 55 57 60 61 59 56 55 52 47 43 42 46 43 30 29 27 27 28 28 30
25 25 26 27 28 28 24 22 23 24 25 26 28 31 33 36 39 43 45 47 50 52 54 56 58 58 57 54 51 49 48 43 44 39 38 32 29 29 28 27 27 29 29

GFSMW_700_spd_057.txt.gz
Wind_Speed
10 10 13 17 17 18 19 19 19 19 18 17 15 13 10 9 10 12 14 13 13 14 15 17 18 17 18 18 20 22 25 26 30 32 34 35 34 35 37 37 41 45 44
14 14 17 18 16 16 16 17 17 16 16 15 13 12 11 10 10 10 10 14 13 15 16 18 19 20 20 21 23 26 29 32 34 25 29 38 42 42 38 38 44 47 46
16 16 16 17 17 15 12 12 12 13 14 14 13 11 11 10 9 9 11 12 17 18 17 19 21 22 22 24 25 29 31 32 35 39 47 49 48 39 40 45 45 44 45
17 18 16 15 14 14 15 14 13 13 14 14 14 11 13 14 14 15 17 19 19 18 19 20 23 24 24 27 32 34 35 42 43 35 35 45 41 41 45 51 44 45 47
17 17 17 17 16 18 16 14 13 13 13 14 15 15 13 16 18 20 21 22 23 21 21 24 26 27 29 31 33 36 40 43 45 36 42 44 41 42 51 45 45 48 49
21 19 17 17 18 21 22 19 16 15 15 16 18 18 17 14 16 20 23 25 27 26 24 26 29 30 31 33 39 44 33 37 35 42 46 43 42 43 40 43 45 46 47
24 24 23 22 22 21 19 18 17 11 13 18 19 19 18 18 18 20 24 29 30 27 27 29 31 31 33 36 43 47 37 39 48 43 45 41 41 40 40 41 41 41 41
15 18 23 23 19 17 17 17 15 19 14 17 19 22 22 18 22 21 23 26 25 27 28 27 29 28 34 39 36 37 36 46 43 43 42 40 41 39 36 36 36 39 40
11 15 18 21 20 18 16 16 19 22 19 21 21 23 26 22 25 21 22 25 26 27 26 27 26 30 32 33 33 35 39 42 47 44 43 41 37 33 33 34 36 39 41
9 11 14 18 18 18 16 19 21 22 24 23 25 27 24 25 23 22 24 23 22 24 25 28 25 32 36 37 39 38 36 40 44 45 41 35 33 31 33 35 36 38 39
4 7 12 14 14 17 19 20 22 24 24 23 25 28 26 24 22 21 22 24 25 29 15 27 31 39 29 27 32 37 42 42 39 41 35 32 31 31 34 36 37 39 40
6 5 4 6 6 6 7 8 10 13 16 18 21 24 25 22 21 21 25 26 31 28 18 26 33 30 34 37 42 41 37 39 38 34 32 30 31 32 35 36 37 39 40
10 9 5 4 6 8 9 10 10 13 15 16 19 21 23 28 29 30 25 29 39 26 27 36 27 42 34 34 39 34 38 36 34 31 31 31 33 34 36 37 38 38 38
15 15 14 14 12 11 10 11 15 19 20 21 21 25 26 27 27 26 26 25 28 28 36 38 36 34 45 40 34 40 36 34 33 32 32 34 34 35 37 38 38 38 38
17 19 20 20 19 18 17 18 21 23 24 25 25 26 26 28 27 29 30 35 25 31 42 34 39 47 40 37 40 35 33 33 33 34 35 35 36 37 38 38 39 39 38
19 18 19 23 24 24 25 24 26 27 29 31 30 30 30 28 28 28 33 25 32 37 36 34 38 39 36 41 35 33 32 33 35 37 38 37 37 39 39 39 39 38 37
24 23 22 23 22 21 22 22 23 24 25 25 26 26 28 30 28 23 28 36 34 36 40 31 33 42 39 35 33 31 35 37 39 40 40 40 40 40 40 40 41 39 37
17 16 16 16 17 18 20 21 23 24 25 27 29 30 28 23 25 29 30 35 37 34 30 40 42 37 32 33 32 34 38 41 42 42 42 42 41 41 40 41 41 39 36
14 15 16 17 19 21 23 23 23 23 24 26 25 25 25 23 30 28 31 28 28 38 39 36 32 33 33 32 35 39 42 45 45 44 43 43 43 40 40 42 40 37 34
16 17 17 19 19 19 19 19 20 21 22 23 24 23 22 23 23 24 28 35 37 33 33 33 33 34 36 37 39 42 46 48 48 46 46 46 44 41 40 41 36 34 31
16 17 18 19 18 18 18 19 21 21 22 21 20 24 22 22 28 33 33 31 31 32 33 35 36 39 41 43 45 47 49 51 51 51 49 47 43 40 39 37 34 32 31
16 17 18 19 19 19 20 21 22 22 23 24 24 27 28 26 25 26 28 29 31 33 36 39 42 44 46 48 50 51 52 52 54 54 52 48 42 39 38 36 35 31 31
17 18 18 19 20 21 22 23 20 23 27 27 27 22 22 24 26 26 29 31 34 38 41 45 48 50 53 54 55 55 54 54 53 52 50 44 40 38 38 37 36 30 29
18 18 19 20 21 22 24 25 25 27 27 21 21 22 23 24 26 30 33 36 38 41 44 48 51 54 57 59 60 59 57 54 50 47 43 40 42 39 39 44 33 27 27
19 20 20 21 22 23 24 26 28 24 20 21 22 22 24 26 29 32 34 37 40 44 48 51 55 58 59 58 57 55 52 49 46 45 41 36 34 33 38 30 22 25 27
22 22 23 24 24 25 27 24 20 20 20 21 23 25 28 30 32 34 36 39 42 45 49 51 53 54 52 52 51 50 49 45 42 40 37 35 33 31 30 20 22 25 26

GFSMW_700_spd_060.txt.gz
Wind_Speed
8 10 14 16 16 18 18 18 20 22 23 23 23 22 20 18 15 16 17 19 19 17 17 15 17 19 18 17 17 19 21 22 22 25 30 32 33 39 33 37 37 35 37
14 13 14 16 17 17 17 18 17 17 16 16 16 16 15 15 16 17 16 17 17 18 18 19 20 20 20 19 20 21 23 24 26 31 34 36 40 39 35 35 36 36 41
13 15 18 18 18 18 18 18 17 17 17 17 18 18 18 17 16 15 13 16 18 19 22 22 21 21 22 21 22 23 25 30 31 33 35 35 33 36 43 43 37 37 38
15 17 18 19 19 19 19 19 19 19 19 20 20 19 18 17 16 16 16 17 20 22 23 24 22 24 24 23 25 27 30 31 37 39 37 34 31 36 37 41 45 42 39
16 18 19 19 21 23 22 21 19 20 20 20 20 20 20 19 20 21 23 24 24 26 26 26 28 27 26 27 29 30 33 32 36 48 38 34 40 38 35 38 36 41 44
21 20 22 23 21 23 24 23 21 20 19 18 19 19 20 22 21 23 25 28 28 30 30 30 31 29 30 29 30 30 35 38 34 40 31 39 34 35 39 39 38 39 37
27 26 24 22 24 25 24 24 22 19 18 17 18 19 21 22 28 23 24 27 28 30 30 33 32 31 31 29 30 28 32 32 33 32 40 36 39 38 39 38 36 35 34
24 32 29 26 23 22 23 23 21 22 22 17 18 18 22 27 28 26 22 27 31 32 30 31 30 31 31 33 26 28 35 31 36 32 34 38 40 40 39 36 35 33 32
15 27 31 32 29 28 26 24 24 25 26 25 23 24 27 29 30 24 24 30 33 31 37 32 31 35 33 27 27 38 37 34 39 38 39 40 38 39 36 34 32 33 34
11 17 25 28 30 31 30 29 27 27 28 28 29 30 30 31 31 28 27 31 31 28 32 30 31 34 29 32 31 35 35 37 29 38 39 37 39 34 33 32 33 33 34
1 6 16 21 25 28 29 28 26 27 30 32 32 30 29 31 32 30 29 30 34 29 34 36 42 15 24 35 34 36 31 35 35 39 35 37 34 31 32 34 33 34 35
5 4 4 16 20 23 28 30 31 30 29 29 30 30 30 30 29 30 31 36 27 29 36 38 32 22 28 31 30 34 36 38 39 40 37 33 32 32 33 34 36 36 37
9 8 7 8 12 16 17 15 17 17 18 18 18 20 22 23 24 26 30 27 33 31 25 44 32 27 29 32 31 29 42 42 39 37 33 32 33 34 36 37 38 38 38
12 14 13 15 15 15 14 15 15 17 18 19 21 23 24 26 27 28 28 28 28 33 30 28 26 33 34 36 33 41 36 39 41 37 33 33 34 36 37 38 40 39 39
16 17 19 21 22 21 20 19 20 22 24 25 26 28 29 29 31 30 30 29 29 33 32 28 30 37 40 34 32 37 38 36 37 35 35 36 38 37 38 38 40 39 39
19 20 21 20 25 26 26 25 26 25 26 28 30 32 31 32 32 31 30 28 29 31 28 28 33 34 34 33 40 38 35 34 36 37 37 40 42 40 40 41 41 40 40
23 25 25 24 23 26 27 26 25 23 24 26 27 27 28 27 28 30 30 26 24 30 32 30 30 31 37 35 32 31 33 35 37 39 40 42 43 45 43 44 43 43 41
22 22 22 20 18 17 17 19 21 23 25 26 26 27 28 29 30 26 25 24 25 26 30 29 33 36 33 32 32 33 36 39 40 42 44 45 45 45 47 46 44 45 42
18 17 15 15 15 16 19 21 23 24 24 23 24 25 25 26 27 27 23 24 22 26 31 34 33 31 30 30 32 36 40 43 45 46 48 49 49 48 47 45 44 43 40
20 18 16 16 17 19 21 22 22 21 21 22 24 26 28 26 23 20 21 26 29 29 28 29 30 30 33 35 36 40 44 48 51 53 54 54 53 51 45 46 44 44 38
20 18 17 17 17 18 18 18 19 20 21 22 22 22 23 21 23 23 23 22 24 26 27 29 31 34 37 39 42 45 48 52 55 57 57 55 52 51 45 42 43 42 36
20 18 17 17 17 17 18 18 20 20 21 22 23 24 23 22 19 20 22 23 24 27 30 32 34 37 40 43 45 47 50 52 55 56 55 52 49 47 46 42 40 39 38
20 19 18 18 18 18 18 19 20 21 23 23 23 21 18 19 21 21 23 25 28 30 32 35 39 42 44 47 50 51 52 52 52 50 49 47 44 39 38 38 41 35 41
20 19 19 19 19 20 21 22 23 24 25 24 20 20 20 21 22 24 26 28 30 32 35 38 41 43 46 49 52 53 54 54 53 51 49 44 41 36 33 33 37 39 35
20 20 20 21 22 23 24 24 24 25 23 19 20 20 21 22 25 27 28 30 32 34 37 40 43 46 49 51 53 56 56 55 53 50 46 41 37 34 31 26 28 24 28
23 23 23 23 25 25 25 25 25 21 20 20 20 20 22 24 26 28 31 30 33 35 38 41 44 47 50 52 53 53 52 50 48 45 42 36 31 27 22 23 22 21 22

GFSMW_700_spd_063.txt.gz
Wind_Speed
12 10 10 13 13 17 19 16 13 14 17 19 20 20 20 21 22 21 21 21 21 21 23 22 21 21 20 19 17 17 18 19 19 22 25 31 32 34 37 33 31 34 38
15 14 12 13 13 14 16 18 18 18 18 16 17 18 19 19 19 21 22 20 21 22 23 24 24 23 24 23 20 19 20 23 22 24 26 28 33 41 42 33 34 37 32
16 17 14 14 15 16 17 17 16 17 17 17 18 18 19 19 20 20 21 21 21 22 24 25 27 25 30 27 23 21 23 27 27 26 27 33 35 40 36 36 35 39 36
19 19 15 16 17 18 18 19 18 17 17 18 19 20 20 19 19 20 20 19 23 24 27 28 28 27 30 30 27 26 27 27 34 29 31 34 35 32 32 33 38 42 40
21 22 18 16 18 18 18 18 19 20 21 21 22 21 22 21 21 22 25 23 26 25 27 31 29 31 33 34 32 30 29 31 29 33 32 33 32 34 37 33 30 32 36
21 22 22 20 22 24 23 23 23 22 22 22 22 22 21 23 24 26 23 27 30 33 32 34 34 34 35 37 36 33 35 32 30 35 29 31 27 32 30 33 34 35 34
23 24 25 26 24 24 25 26 25 24 23 22 21 21 21 23 25 28 30 32 30 32 29 34 35 37 34 37 37 33 36 32 33 35 35 31 33 32 34 36 36 37 35
21 26 28 27 26 26 27 27 27 26 25 22 21 23 21 20 25 30 33 26 28 26 28 34 38 40 40 38 31 34 35 37 31 37 33 33 33 36 40 38 39 37 35
12 21 27 30 29 29 28 26 28 28 28 24 25 23 24 26 29 34 33 30 28 26 32 32 38 42 43 33 33 34 35 34 34 38 37 35 31 38 39 37 39 37 36
8 11 19 28 32 31 30 30 28 28 27 28 28 29 31 30 32 36 36 33 32 31 34 34 44 46 28 29 33 23 28 35 34 32 34 36 36 37 39 36 36 35 36
2 5 12 20 26 27 30 35 33 30 29 30 32 31 30 31 32 32 33 34 33 34 34 36 37 35 32 35 32 29 29 32 36 38 39 37 38 38 36 36 36 36 37
5 6 7 12 15 25 30 35 36 33 30 29 30 34 32 32 31 30 31 32 32 30 35 32 32 27 33 32 35 30 37 40 36 33 37 35 37 36 35 35 36 37 40
7 7 8 10 14 18 19 21 24 24 26 30 34 32 27 24 25 27 29 29 30 31 31 29 33 31 29 37 37 28 36 43 37 35 38 38 40 36 35 36 38 40 40
12 10 11 12 14 15 18 22 22 23 24 26 26 23 24 25 26 28 30 31 31 32 33 31 32 32 30 30 33 35 36 34 39 43 43 39 35 34 36 38 39 41 42
15 17 16 19 20 23 24 24 25 25 25 26 25 25 27 27 29 31 33 32 32 33 30 31 32 33 30 30 30 30 33 38 43 39 35 36 37 38 39 39 41 42 43
19 18 19 23 26 24 28 30 28 27 27 27 28 29 30 32 33 34 33 33 31 28 30 33 32 32 33 29 32 34 39 36 35 34 34 37 40 43 46 48 47 45 44
25 23 26 29 31 30 28 33 32 31 30 32 33 32 31 30 30 30 30 31 33 32 30 32 32 30 30 31 34 35 35 35 35 36 39 40 41 43 46 48 51 52 45
28 29 27 25 25 24 23 23 23 22 22 23 24 26 27 29 30 31 31 31 31 32 31 30 28 28 32 31 31 33 34 36 38 40 42 44 46 47 49 50 49 44 47
28 25 21 21 20 18 17 17 19 20 21 23 24 26 26 27 28 30 31 30 28 25 24 26 29 28 29 32 31 33 37 39 41 42 44 46 48 49 48 49 50 46 46
21 20 20 20 20 19 19 19 20 22 23 24 25 25 27 28 29 28 26 25 25 25 25 25 26 27 28 34 33 33 38 41 43 46 47 48 50 50 51 51 49 44 44
21 23 24 23 21 20 20 21 23 24 24 24 25 26 26 26 26 25 25 23 22 24 24 24 26 29 31 34 36 37 38 42 47 48 50 51 52 53 52 49 48 46 41
25 27 26 24 22 21 22 22 23 23 24 24 25 25 26 26 26 23 22 23 23 24 26 28 28 30 32 36 40 39 41 44 48 50 51 53 54 53 51 49 45 42 40
28 28 27 25 23 23 23 23 24 24 24 25 25 25 26 24 22 22 23 23 24 26 28 29 31 33 35 38 42 42 44 46 49 50 52 51 49 46 44 41 38 36 37
30 30 28 26 24 24 25 25 25 26 26 26 27 27 25 23 23 23 24 25 26 28 30 32 34 36 37 40 42 45 47 49 51 52 51 48 45 42 40 37 32 30 32
32 31 30 28 26 26 26 27 27 28 29 28 28 25 24 24 24 24 26 28 28 29 31 34 36 37 39 42 44 47 50 51 52 52 49 46 42 41 37 28 25 22 25
32 32 32 30 28 28 29 29 30 31 31 28 25 24 24 24 25 28 28 28 30 31 32 34 36 38 41 44 46 49 50 50 48 47 46 42 39 36 30 26 21 21 23

GFSMW_700_spd_069.txt.gz
Wind_Speed
2 4 3 5 9 13 19 22 23 25 26 28 31 37 37 34 32 31 27 25 22 22 19 17 16 15 15 17 17 19 20 20 21 23 23 24 23 23 24 26 26 29 27
6 2 5 4 8 9 14 17 20 21 20 20 25 27 26 25 24 24 26 23 24 21 19 18 18 17 17 21 21 22 24 25 26 28 28 29 29 26 27 31 33 35 30
8 1 5 5 6 10 11 13 14 14 14 15 16 19 21 22 23 23 23 23 23 21 17 17 20 18 19 23 23 23 26 28 33 30 33 32 35 30 30 32 35 37 36
11 4 7 8 10 10 13 14 15 15 15 16 18 20 19 20 19 19 19 20 18 18 15 13 18 19 19 23 27 27 28 29 32 39 35 36 35 33 35 35 35 41 37
11 5 5 8 12 14 14 15 14 13 14 16 15 17 19 19 19 21 21 19 16 14 15 16 20 23 22 25 26 31 36 38 41 45 37 36 38 28 32 35 34 37 41
15 7 5 9 11 15 17 17 18 18 21 21 20 18 18 20 19 19 19 17 16 14 15 17 16 22 29 32 29 30 30 33 32 40 42 36 45 35 32 37 32 33 32
17 14 11 11 14 14 15 16 19 22 21 20 20 17 16 18 18 20 23 20 17 16 18 15 18 18 22 27 32 34 31 31 31 45 39 38 41 32 33 36 38 40 37
15 12 12 12 14 17 16 18 20 19 19 18 17 17 18 18 19 21 21 19 19 19 23 23 23 22 22 24 30 30 33 35 37 29 28 29 19 21 26 36 42 41 38
18 19 17 16 17 19 19 21 22 21 22 22 21 19 20 23 19 23 25 26 26 25 23 27 28 24 26 25 28 32 32 32 24 28 23 20 25 26 33 39 40 37 39
20 22 23 23 22 20 19 19 24 25 25 26 27 27 26 27 27 25 30 31 28 21 23 27 30 28 26 26 27 28 30 32 20 22 22 30 33 32 34 37 37 37 39
18 15 20 29 26 23 24 24 20 23 29 30 31 32 33 32 34 36 33 32 32 24 24 25 25 23 26 29 28 29 30 25 27 33 31 30 37 35 31 34 35 38 39
13 12 18 21 23 32 31 27 26 26 25 29 31 31 33 36 31 43 45 15 18 20 22 24 23 26 28 29 30 31 24 31 29 24 35 34 38 33 32 35 37 34 33
16 11 13 12 18 22 29 31 33 34 36 26 30 32 30 22 29 17 17 23 21 22 22 23 24 26 28 28 33 33 30 26 30 37 33 35 33 32 34 33 34 32 33
15 14 16 15 14 17 26 30 31 29 28 20 17 24 28 25 24 21 22 19 19 23 24 26 29 29 30 29 29 32 32 37 29 33 32 30 32 33 32 32 32 33 35
16 17 19 19 20 15 16 21 22 23 23 22 23 26 24 22 22 21 21 22 24 28 31 32 32 30 33 31 30 31 34 32 35 27 29 32 31 30 31 33 35 37 40
21 21 24 24 25 23 19 22 23 20 20 24 27 27 25 24 26 25 26 28 31 33 33 31 32 32 29 31 31 33 33 27 26 28 29 28 29 31 33 37 38 39 42
20 22 26 26 29 29 26 25 26 27 30 32 31 31 30 27 26 29 31 35 31 29 30 31 30 29 29 31 32 28 26 26 27 27 28 29 30 34 37 38 39 40 41
21 22 23 26 29 31 31 30 29 32 36 34 32 31 28 28 32 33 29 30 31 30 28 29 30 31 30 29 28 27 26 25 26 27 29 32 33 36 39 42 43 44 45
20 25 25 27 25 28 30 30 34 35 28 26 25 28 29 25 26 29 30 30 28 27 28 29 31 30 29 26 25 25 25 27 28 30 31 34 37 39 40 44 46 48 47
20 21 24 23 23 25 26 30 27 23 21 20 19 21 23 24 26 27 26 26 26 27 29 29 30 29 26 25 24 26 29 30 31 32 33 35 38 40 42 46 48 49 50
21 21 22 24 24 24 24 24 23 20 20 20 21 22 23 25 25 26 26 27 27 28 30 30 28 28 29 27 27 29 29 31 32 34 35 36 39 41 44 45 47 49 50
23 22 21 22 23 24 25 25 24 24 23 23 23 24 25 26 27 28 29 29 30 28 28 28 31 30 30 28 29 29 31 33 34 36 37 40 42 43 44 45 46 48 48
24 23 24 24 24 25 26 27 28 27 26 25 26 27 28 29 29 29 31 31 30 28 27 28 30 31 31 31 31 31 33 35 37 39 41 43 44 44 44 45 46 47 46
23 25 25 24 26 28 28 30 31 31 30 29 28 29 31 31 31 31 31 32 31 31 30 29 29 31 32 31 32 33 34 36 38 40 42 44 44 44 44 45 44 44 43
23 26 27 27 28 30 32 33 35 35 35 33 33 33 34 34 33 32 32 32 31 31 30 29 28 30 30 31 33 34 35 38 40 41 43 44 44 44 44 44 44 42 39
24 26 28 29 31 34 36 37 39 40 39 38 37 38 37 36 35 34 33 31 30 29 28 30 29 29 31 32 35 36 38 40 41 42 44 44 44 45 45 45 44 42 38

GFSMW_700_spd_075.txt.gz
Wind_Speed
13 11 8 3 7 1 22 25 23 22 22 25 27 23 30 37 41 41 38 34 32 32 32 27 24 24 20 17 16 17 14 14 16 18 17 19 20 21 21 21 23 25 26
8 8 7 1 5 10 14 21 23 22 21 23 26 22 26 39 38 33 37 37 36 30 32 27 25 22 20 20 21 19 18 18 19 19 21 25 27 24 27 23 24 27 29
8 5 4 3 6 9 16 19 17 16 27 24 22 25 34 37 34 35 38 39 35 34 35 28 24 23 24 23 22 20 20 20 22 22 21 25 28 28 30 29 33 31 32
4 5 3 2 7 10 12 16 18 18 20 24 28 29 29 32 28 30 34 37 36 37 32 29 25 24 23 22 22 22 23 23 24 24 22 22 27 25 29 28 31 30 33
4 4 3 3 7 8 7 8 11 14 18 21 21 23 26 28 30 34 35 35 33 30 27 25 25 25 23 23 22 24 25 26 25 28 27 28 29 27 28 29 33 34 35
8 7 8 8 7 8 9 9 7 7 8 11 15 17 18 23 27 27 28 28 27 28 25 25 24 24 25 23 23 25 26 26 26 25 30 31 27 29 29 32 30 35 29
10 11 12 8 8 9 9 10 10 8 8 8 10 11 15 18 22 23 24 26 27 25 22 25 26 25 24 26 26 25 24 24 26 27 30 33 32 31 30 32 32 34 30
14 12 10 12 11 9 10 10 11 11 11 10 10 11 13 15 17 19 22 23 24 24 25 24 27 24 28 30 30 31 26 26 25 26 30 28 32 35 36 32 33 34 35
17 16 12 7 6 10 9 10 11 12 14 14 14 15 16 16 17 19 23 24 24 26 27 28 29 30 32 36 35 32 26 23 28 30 29 33 31 39 36 34 31 33 41
17 18 16 14 11 9 8 10 11 12 14 16 17 18 20 21 21 24 26 26 29 30 30 31 28 31 35 34 32 31 27 35 37 37 30 34 34 39 36 35 32 31 38
14 17 17 15 17 17 17 15 18 19 14 18 21 24 27 28 29 29 31 31 33 34 35 38 42 43 38 28 30 28 27 36 37 37 36 36 38 37 38 36 35 37 42
7 8 8 14 17 22 23 21 21 25 29 28 21 19 21 21 32 27 37 32 41 48 25 20 21 23 28 27 29 30 33 38 33 39 38 37 41 42 36 36 41 49 39
11 8 9 9 12 14 18 18 20 22 29 32 27 26 20 19 17 28 33 28 27 29 23 19 18 19 30 28 27 30 34 34 36 36 34 39 44 40 32 40 42 41 44
12 13 10 10 12 10 12 15 17 18 21 23 26 25 26 21 18 18 26 31 25 18 19 20 23 21 24 26 29 32 36 38 37 35 44 41 42 39 42 45 39 47 43
19 18 17 16 15 13 11 13 14 14 13 17 21 23 21 20 18 19 18 20 19 20 21 22 25 26 28 28 34 37 37 37 34 36 43 43 42 42 44 43 45 39 41
20 22 21 20 21 19 15 15 18 17 18 15 19 21 22 21 23 23 25 24 24 25 24 25 29 31 33 34 39 35 34 35 38 43 45 40 39 39 48 39 39 39 39
26 26 25 22 19 18 19 20 20 19 21 23 21 23 23 23 25 28 31 30 28 28 29 30 31 33 36 32 32 33 36 41 40 36 39 40 43 46 40 38 38 39 40
24 22 22 20 24 19 19 20 21 25 22 23 23 22 24 26 30 33 29 26 26 28 29 30 29 28 29 30 32 34 35 34 35 37 39 44 41 39 38 39 39 39 40
20 23 23 23 20 20 22 22 22 22 20 20 24 26 29 29 29 25 22 21 22 25 24 26 27 28 28 29 30 32 33 35 37 38 41 40 38 38 39 39 39 39 41
19 19 22 19 21 22 21 21 21 21 21 21 23 27 27 25 22 20 19 20 22 23 24 25 26 27 29 30 31 33 35 36 37 37 38 38 38 39 40 40 40 42 42
19 22 22 23 21 21 19 18 19 19 21 23 25 25 24 22 20 19 20 22 23 24 25 27 28 30 30 31 32 33 34 35 35 36 38 38 38 39 39 40 42 44 45
25 27 22 18 16 17 17 17 18 20 21 22 22 23 23 23 23 23 24 25 27 27 28 29 30 30 31 33 33 33 34 35 36 38 38 38 39 39 41 43 43 45 46
25 20 14 13 15 15 16 18 20 21 22 23 23 23 25 26 27 28 29 29 30 31 32 32 32 32 32 32 33 34 35 36 36 35 36 38 39 41 42 44 44 45 46
22 15 14 14 14 17 20 22 24 25 25 25 26 27 29 30 30 31 32 34 35 36 36 36 36 36 35 36 36 37 37 36 36 37 43 45 43 43 43 44 46 45 45
20 18 18 18 20 22 25 26 26 26 27 27 28 30 32 34 34 35 36 37 38 39 39 40 40 40 40 38 38 38 40 44 47 47 46 44 44 46 47 46 45 44 44
24 23 21 23 25 26 26 26 27 27 27 27 28 31 33 35 37 38 39 41 43 43 44 45 47 46 46 45 46 47 47 46 46 46 46 47 48 49 48 46 44 45 46